Wetterdaten: Samstag, 04.05.2019
Datum Zeit Temp. Aussen Temp. o. S. +5cm Feuchte Auss Luftdruck Regen Sonnenschein Regendauer Solar Windben Empfang
04.05.2019 00:00 7,9 C 5,6 C 5,6 C 86 % 1008,5 hPa 0,0 l/m 0 min 2 min 0 W/m 3,2 km/h (1 Bft) 97,87 %
04.05.2019 00:02 7,8 C 5,6 C 5,6 C 86 % 1008,5 hPa 0,0 l/m 0 min 2 min 0 W/m 6,4 km/h (2 Bft) 97,50 %
04.05.2019 00:04 7,8 C 5,6 C 5,6 C 87 % 1008,5 hPa 0,2 l/m 0 min 2 min 0 W/m 6,4 km/h (2 Bft) 100,00 %
04.05.2019 00:07 7,7 C 5,6 C 5,6 C 87 % 1008,5 hPa 0,0 l/m 0 min 3 min 0 W/m 6,4 km/h (2 Bft) 100,00 %
04.05.2019 00:08 7,7 C 5,6 C 5,6 C 87 % 1008,5 hPa 0,0 l/m 0 min 1 min 0 W/m 6,4 km/h (2 Bft) 100,00 %
04.05.2019 00:10 7,7 C 5,6 C 5,6 C 87 % 1008,4 hPa 0,0 l/m 0 min 2 min 0 W/m 19,3 km/h (3 Bft) 97,96 %
04.05.2019 00:12 7,6 C 5,0 C 5,0 C 87 % 1008,5 hPa 0,0 l/m 0 min 2 min 0 W/m 9,7 km/h (2 Bft) 100,00 %
04.05.2019 00:14 7,5 C 5,6 C 5,6 C 87 % 1008,5 hPa 0,0 l/m 0 min 2 min 0 W/m 9,7 km/h (2 Bft) 97,92 %
04.05.2019 00:16 7,5 C 5,6 C 5,6 C 87 % 1008,5 hPa 0,0 l/m 0 min 2 min 0 W/m 9,7 km/h (2 Bft) 100,00 %
04.05.2019 00:18 7,4 C 5,6 C 5,6 C 88 % 1008,5 hPa 0,0 l/m 0 min 2 min 0 W/m 12,9 km/h (3 Bft) 97,87 %
04.05.2019 00:20 7,4 C 5,0 C 5,6 C 88 % 1008,5 hPa 0,2 l/m 0 min 2 min 0 W/m 9,7 km/h (2 Bft) 95,12 %
04.05.2019 00:22 7,3 C 5,0 C 5,0 C 88 % 1008,5 hPa 0,0 l/m 0 min 2 min 0 W/m 6,4 km/h (2 Bft) 95,92 %
04.05.2019 00:24 7,3 C 5,6 C 5,0 C 88 % 1008,4 hPa 0,0 l/m 0 min 2 min 0 W/m 9,7 km/h (2 Bft) 97,96 %
04.05.2019 00:26 7,3 C 5,6 C 5,0 C 88 % 1008,4 hPa 0,0 l/m 0 min 2 min 0 W/m 6,4 km/h (2 Bft) 97,92 %
04.05.2019 00:28 7,2 C 5,0 C 5,0 C 88 % 1008,4 hPa 0,0 l/m 0 min 2 min 0 W/m 9,7 km/h (2 Bft) 97,87 %
04.05.2019 00:30 7,2 C 5,0 C 5,6 C 89 % 1008,4 hPa 0,0 l/m 0 min 2 min 0 W/m 9,7 km/h (2 Bft) 93,62 %
04.05.2019 00:32 7,2 C 5,0 C 5,6 C 89 % 1008,4 hPa 0,2 l/m 0 min 2 min 0 W/m 9,7 km/h (2 Bft) 97,62 %
04.05.2019 00:34 7,1 C 5,0 C 5,0 C 89 % 1008,3 hPa 0,0 l/m 0 min 2 min 0 W/m 16,1 km/h (3 Bft) 97,87 %
04.05.2019 00:36 7,1 C 5,6 C 5,0 C 89 % 1008,3 hPa 0,0 l/m 0 min 2 min 0 W/m 6,4 km/h (2 Bft) 95,92 %
04.05.2019 00:38 7,1 C 5,0 C 5,0 C 89 % 1008,3 hPa 0,0 l/m 0 min 2 min 0 W/m 3,2 km/h (1 Bft) 93,75 %
04.05.2019 00:40 7,1 C 5,0 C 5,0 C 89 % 1008,3 hPa 0,0 l/m 0 min 2 min 0 W/m 3,2 km/h (1 Bft) 95,83 %
04.05.2019 00:42 7,1 C 5,0 C 5,6 C 90 % 1008,2 hPa 0,2 l/m 0 min 2 min 0 W/m 6,4 km/h (2 Bft) 95,74 %
04.05.2019 00:44 7,0 C 5,0 C 5,6 C 90 % 1008,2 hPa 0,0 l/m 0 min 2 min 0 W/m 6,4 km/h (2 Bft) 95,65 %
04.05.2019 00:46 7,0 C 5,0 C 5,6 C 90 % 1008,2 hPa 0,0 l/m 0 min 2 min 0 W/m 6,4 km/h (2 Bft) 97,67 %
04.05.2019 00:48 7,0 C 5,6 C 5,6 C 90 % 1008,2 hPa 0,0 l/m 0 min 2 min 0 W/m 6,4 km/h (2 Bft) 95,92 %
04.05.2019 00:50 6,9 C 5,0 C 5,6 C 90 % 1008,2 hPa 0,0 l/m 0 min 2 min 0 W/m 12,9 km/h (3 Bft) 95,83 %
04.05.2019 00:52 6,9 C 5,0 C 5,0 C 90 % 1008,2 hPa 0,0 l/m 0 min 2 min 0 W/m 6,4 km/h (2 Bft) 95,83 %
04.05.2019 00:54 6,9 C 5,6 C 5,0 C 90 % 1008,2 hPa 0,0 l/m 0 min 2 min 0 W/m 6,4 km/h (2 Bft) 93,62 %
04.05.2019 00:56 6,9 C 5,0 C 5,0 C 91 % 1008,2 hPa 0,2 l/m 0 min 2 min 0 W/m 9,7 km/h (2 Bft) 93,48 %
04.05.2019 00:58 6,8 C 5,0 C 5,0 C 90 % 1008,1 hPa 0,0 l/m 0 min 2 min 0 W/m 6,4 km/h (2 Bft) 90,91 %
04.05.2019 01:00 6,8 C 5,0 C 5,0 C 91 % 1008,1 hPa 0,0 l/m 0 min 2 min 0 W/m 9,7 km/h (2 Bft) 95,74 %
04.05.2019 01:02 6,8 C 5,0 C 5,0 C 91 % 1008,0 hPa 0,0 l/m 0 min 2 min 0 W/m 6,4 km/h (2 Bft) 93,88 %
04.05.2019 01:04 6,8 C 5,0 C 5,0 C 91 % 1008,0 hPa 0,0 l/m 0 min 2 min 0 W/m 9,7 km/h (2 Bft) 95,74 %
04.05.2019 01:06 6,7 C 5,0 C 5,0 C 91 % 1008,0 hPa 0,0 l/m 0 min 2 min 0 W/m 3,2 km/h (1 Bft) 95,74 %
04.05.2019 01:08 6,7 C 5,0 C 5,0 C 91 % 1008,0 hPa 0,0 l/m 0 min 2 min 0 W/m 6,4 km/h (2 Bft) 93,62 %
04.05.2019 01:10 6,7 C 5,0 C 5,0 C 91 % 1008,0 hPa 0,2 l/m 0 min 2 min 0 W/m 6,4 km/h (2 Bft) 95,24 %
04.05.2019 01:12 6,7 C 5,0 C 5,0 C 91 % 1007,9 hPa 0,0 l/m 0 min 2 min 0 W/m 6,4 km/h (2 Bft) 95,92 %
04.05.2019 01:14 6,6 C 5,0 C 5,0 C 91 % 1007,9 hPa 0,0 l/m 0 min 2 min 0 W/m 3,2 km/h (1 Bft) 93,75 %
04.05.2019 01:16 6,6 C 5,0 C 5,0 C 92 % 1008,0 hPa 0,0 l/m 0 min 2 min 0 W/m 6,4 km/h (2 Bft) 97,96 %
04.05.2019 01:18 6,6 C 5,0 C 5,0 C 92 % 1007,9 hPa 0,0 l/m 0 min 2 min 0 W/m 6,4 km/h (2 Bft) 97,83 %
04.05.2019 01:20 6,6 C 5,0 C 5,0 C 92 % 1007,9 hPa 0,0 l/m 0 min 2 min 0 W/m 3,2 km/h (1 Bft) 95,74 %
04.05.2019 01:22 6,6 C 5,0 C 5,0 C 92 % 1007,9 hPa 0,0 l/m 0 min 2 min 0 W/m 6,4 km/h (2 Bft) 97,62 %
04.05.2019 01:24 6,6 C 5,0 C 5,0 C 92 % 1007,9 hPa 0,2 l/m 0 min 2 min 0 W/m 9,7 km/h (2 Bft) 95,74 %
04.05.2019 01:26 6,6 C 5,0 C 5,0 C 92 % 1007,9 hPa 0,0 l/m 0 min 2 min 0 W/m 6,4 km/h (2 Bft) 100,00 %
04.05.2019 01:28 6,6 C 5,0 C 5,0 C 92 % 1007,9 hPa 0,0 l/m 0 min 2 min 0 W/m 0,0 km/h (0 Bft) 100,00 %
04.05.2019 01:30 6,6 C 5,0 C 5,0 C 92 % 1007,9 hPa 0,0 l/m 0 min 2 min 0 W/m 3,2 km/h (1 Bft) 97,96 %
04.05.2019 01:32 6,5 C 5,0 C 5,0 C 92 % 1007,9 hPa 0,0 l/m 0 min 2 min 0 W/m 3,2 km/h (1 Bft) 100,00 %
04.05.2019 01:34 6,5 C 5,0 C 5,0 C 92 % 1007,9 hPa 0,0 l/m 0 min 2 min 0 W/m 9,7 km/h (2 Bft) 100,00 %
04.05.2019 01:36 6,5 C 5,0 C 5,0 C 92 % 1007,9 hPa 0,0 l/m 0 min 2 min 0 W/m 9,7 km/h (2 Bft) 100,00 %
04.05.2019 01:38 6,5 C 5,0 C 5,0 C 92 % 1007,9 hPa 0,0 l/m 0 min 2 min 0 W/m 6,4 km/h (2 Bft) 100,00 %
04.05.2019 01:40 6,5 C 5,0 C 5,0 C 92 % 1007,8 hPa 0,2 l/m 0 min 2 min 0 W/m 9,7 km/h (2 Bft) 100,00 %
04.05.2019 01:42 6,4 C 5,0 C 5,0 C 93 % 1007,8 hPa 0,0 l/m 0 min 2 min 0 W/m 3,2 km/h (1 Bft) 100,00 %
04.05.2019 01:44 6,4 C 5,0 C 5,0 C 93 % 1007,8 hPa 0,0 l/m 0 min 2 min 0 W/m 9,7 km/h (2 Bft) 100,00 %
04.05.2019 01:46 6,4 C 5,0 C 5,0 C 93 % 1007,8 hPa 0,0 l/m 0 min 2 min 0 W/m 6,4 km/h (2 Bft) 100,00 %
04.05.2019 01:48 6,4 C 5,0 C 5,0 C 93 % 1007,8 hPa 0,2 l/m 0 min 2 min 0 W/m 12,9 km/h (3 Bft) 100,00 %
04.05.2019 01:50 6,4 C 5,0 C 5,0 C 93 % 1007,8 hPa 0,0 l/m 0 min 2 min 0 W/m 16,1 km/h (3 Bft) 100,00 %
04.05.2019 01:52 6,3 C 5,0 C 5,0 C 93 % 1007,8 hPa 0,0 l/m 0 min 2 min 0 W/m 3,2 km/h (1 Bft) 100,00 %
04.05.2019 01:54 6,3 C 5,0 C 5,0 C 93 % 1007,8 hPa 0,0 l/m 0 min 2 min 0 W/m 3,2 km/h (1 Bft) 100,00 %
04.05.2019 01:56 6,3 C 5,0 C 5,0 C 93 % 1007,7 hPa 0,0 l/m 0 min 2 min 0 W/m 6,4 km/h (2 Bft) 100,00 %
04.05.2019 01:58 6,3 C 5,0 C 5,0 C 93 % 1007,7 hPa 0,0 l/m 0 min 2 min 0 W/m 9,7 km/h (2 Bft) 97,87 %
04.05.2019 02:00 6,2 C 5,0 C 5,0 C 93 % 1007,8 hPa 0,2 l/m 0 min 2 min 0 W/m 6,4 km/h (2 Bft) 100,00 %
04.05.2019 02:02 6,2 C 5,0 C 5,0 C 93 % 1007,7 hPa 0,0 l/m 0 min 2 min 0 W/m 9,7 km/h (2 Bft) 100,00 %
04.05.2019 02:04 6,2 C 4,4 C 5,0 C 93 % 1007,8 hPa 0,0 l/m 0 min 2 min 0 W/m 29,0 km/h (5 Bft) 100,00 %
04.05.2019 02:06 6,2 C 4,4 C 5,0 C 93 % 1007,8 hPa 0,2 l/m 0 min 2 min 0 W/m 12,9 km/h (3 Bft) 100,00 %
04.05.2019 02:08 6,1 C 4,4 C 4,4 C 93 % 1007,8 hPa 0,0 l/m 0 min 2 min 0 W/m 12,9 km/h (3 Bft) 100,00 %
04.05.2019 02:10 6,1 C 4,4 C 4,4 C 93 % 1007,7 hPa 0,0 l/m 0 min 2 min 0 W/m 9,7 km/h (2 Bft) 100,00 %
04.05.2019 02:12 6,0 C 4,4 C 4,4 C 93 % 1007,8 hPa 0,0 l/m 0 min 2 min 0 W/m 16,1 km/h (3 Bft) 100,00 %
04.05.2019 02:14 6,0 C 4,4 C 4,4 C 93 % 1007,7 hPa 0,2 l/m 0 min 2 min 0 W/m 9,7 km/h (2 Bft) 100,00 %
04.05.2019 02:16 5,9 C 4,4 C 4,4 C 93 % 1007,7 hPa 0,0 l/m 0 min 2 min 0 W/m 16,1 km/h (3 Bft) 97,56 %
04.05.2019 02:18 5,9 C 4,4 C 4,4 C 93 % 1007,7 hPa 0,0 l/m 0 min 2 min 0 W/m 9,7 km/h (2 Bft) 100,00 %
04.05.2019 02:20 5,9 C 4,4 C 4,4 C 93 % 1007,7 hPa 0,2 l/m 0 min 2 min 0 W/m 12,9 km/h (3 Bft) 97,96 %
04.05.2019 02:22 5,9 C 4,4 C 4,4 C 93 % 1007,6 hPa 0,0 l/m 0 min 2 min 0 W/m 9,7 km/h (2 Bft) 100,00 %
04.05.2019 02:24 5,9 C 4,4 C 4,4 C 94 % 1007,7 hPa 0,0 l/m 0 min 2 min 0 W/m 19,3 km/h (3 Bft) 100,00 %
04.05.2019 02:26 5,8 C 4,4 C 4,4 C 94 % 1007,7 hPa 0,0 l/m 0 min 2 min 0 W/m 9,7 km/h (2 Bft) 97,87 %
04.05.2019 02:28 5,8 C 4,4 C 4,4 C 94 % 1007,7 hPa 0,2 l/m 0 min 2 min 0 W/m 12,9 km/h (3 Bft) 100,00 %
04.05.2019 02:30 5,8 C 4,4 C 4,4 C 94 % 1007,6 hPa 0,0 l/m 0 min 2 min 0 W/m 12,9 km/h (3 Bft) 100,00 %
04.05.2019 02:32 5,7 C 4,4 C 4,4 C 94 % 1007,6 hPa 0,0 l/m 0 min 2 min 0 W/m 9,7 km/h (2 Bft) 100,00 %
04.05.2019 02:34 5,7 C 3,9 C 4,4 C 94 % 1007,6 hPa 0,0 l/m 0 min 2 min 0 W/m 22,5 km/h (4 Bft) 97,87 %
04.05.2019 02:36 5,6 C 3,9 C 4,4 C 94 % 1007,6 hPa 0,2 l/m 0 min 2 min 0 W/m 9,7 km/h (2 Bft) 97,87 %
04.05.2019 02:38 5,6 C 3,9 C 4,4 C 94 % 1007,6 hPa 0,0 l/m 0 min 2 min 0 W/m 9,7 km/h (2 Bft) 100,00 %
04.05.2019 02:40 5,5 C 3,9 C 3,9 C 94 % 1007,6 hPa 0,0 l/m 0 min 2 min 0 W/m 9,7 km/h (2 Bft) 100,00 %
04.05.2019 02:42 5,5 C 3,9 C 3,9 C 94 % 1007,6 hPa 0,0 l/m 0 min 2 min 0 W/m 6,4 km/h (2 Bft) 100,00 %
04.05.2019 02:44 5,4 C 4,4 C 4,4 C 94 % 1007,7 hPa 0,0 l/m 0 min 2 min 0 W/m 12,9 km/h (3 Bft) 100,00 %
04.05.2019 02:46 5,4 C 3,9 C 4,4 C 94 % 1007,6 hPa 0,2 l/m 0 min 2 min 0 W/m 12,9 km/h (3 Bft) 100,00 %
04.05.2019 02:48 5,4 C 3,9 C 4,4 C 94 % 1007,6 hPa 0,0 l/m 0 min 2 min 0 W/m 19,3 km/h (3 Bft) 100,00 %
04.05.2019 02:50 5,4 C 3,9 C 4,4 C 94 % 1007,6 hPa 0,0 l/m 0 min 2 min 0 W/m 16,1 km/h (3 Bft) 100,00 %
04.05.2019 02:52 5,3 C 3,9 C 3,9 C 94 % 1007,6 hPa 0,2 l/m 0 min 2 min 0 W/m 9,7 km/h (2 Bft) 100,00 %
04.05.2019 02:54 5,3 C 3,9 C 3,9 C 94 % 1007,6 hPa 0,0 l/m 0 min 2 min 0 W/m 9,7 km/h (2 Bft) 100,00 %
04.05.2019 02:56 5,3 C 3,9 C 3,9 C 94 % 1007,6 hPa 0,0 l/m 0 min 2 min 0 W/m 19,3 km/h (3 Bft) 100,00 %
04.05.2019 02:58 5,3 C 3,9 C 3,9 C 94 % 1007,7 hPa 0,0 l/m 0 min 2 min 0 W/m 19,3 km/h (3 Bft) 97,96 %
04.05.2019 03:00 5,2 C 3,9 C 3,9 C 94 % 1007,7 hPa 0,2 l/m 0 min 2 min 0 W/m 12,9 km/h (3 Bft) 100,00 %
04.05.2019 03:02 5,2 C 3,9 C 3,9 C 94 % 1007,6 hPa 0,0 l/m 0 min 2 min 0 W/m 16,1 km/h (3 Bft) 97,87 %
04.05.2019 03:04 5,1 C 3,9 C 3,9 C 94 % 1007,6 hPa 0,2 l/m 0 min 2 min 0 W/m 22,5 km/h (4 Bft) 95,65 %
04.05.2019 03:06 5,0 C 3,3 C 3,9 C 94 % 1007,6 hPa 0,0 l/m 0 min 2 min 0 W/m 19,3 km/h (3 Bft) 97,62 %
04.05.2019 03:08 4,9 C 3,3 C 3,9 C 94 % 1007,6 hPa 0,0 l/m 0 min 2 min 0 W/m 12,9 km/h (3 Bft) 97,96 %
04.05.2019 03:10 4,9 C 3,3 C 3,9 C 94 % 1007,5 hPa 0,0 l/m 0 min 2 min 0 W/m 9,7 km/h (2 Bft) 100,00 %
04.05.2019 03:12 4,9 C 3,3 C 3,9 C 94 % 1007,6 hPa 0,0 l/m 0 min 2 min 0 W/m 12,9 km/h (3 Bft) 100,00 %
04.05.2019 03:14 4,8 C 3,3 C 3,9 C 94 % 1007,6 hPa 0,2 l/m 0 min 2 min 0 W/m 12,9 km/h (3 Bft) 97,87 %
04.05.2019 03:16 4,8 C 3,3 C 3,9 C 94 % 1007,7 hPa 0,0 l/m 0 min 2 min 0 W/m 6,4 km/h (2 Bft) 97,83 %
04.05.2019 03:18 4,8 C 3,3 C 3,9 C 94 % 1007,6 hPa 0,0 l/m 0 min 2 min 0 W/m 9,7 km/h (2 Bft) 95,24 %
04.05.2019 03:20 4,8 C 3,3 C 3,9 C 94 % 1007,6 hPa 0,2 l/m 0 min 2 min 0 W/m 12,9 km/h (3 Bft) 93,88 %
04.05.2019 03:22 4,7 C 3,3 C 3,3 C 94 % 1007,6 hPa 0,0 l/m 0 min 2 min 0 W/m 12,9 km/h (3 Bft) 93,75 %
04.05.2019 03:24 4,7 C 3,3 C 3,3 C 94 % 1007,6 hPa 0,0 l/m 0 min 2 min 0 W/m 12,9 km/h (3 Bft) 95,92 %
04.05.2019 03:26 4,7 C 3,3 C 3,3 C 94 % 1007,6 hPa 0,0 l/m 0 min 2 min 0 W/m 16,1 km/h (3 Bft) 95,74 %
04.05.2019 03:28 4,6 C 3,3 C 3,3 C 94 % 1007,6 hPa 0,0 l/m 0 min 2 min 0 W/m 12,9 km/h (3 Bft) 95,65 %
04.05.2019 03:30 4,6 C 3,3 C 3,3 C 94 % 1007,6 hPa 0,2 l/m 0 min 2 min 0 W/m 16,1 km/h (3 Bft) 92,86 %
04.05.2019 03:32 4,5 C 3,3 C 3,3 C 94 % 1007,6 hPa 0,0 l/m 0 min 2 min 0 W/m 16,1 km/h (3 Bft) 94,12 %
04.05.2019 03:34 4,4 C 3,3 C 3,3 C 94 % 1007,6 hPa 0,0 l/m 0 min 2 min 0 W/m 16,1 km/h (3 Bft) 93,75 %
04.05.2019 03:36 4,4 C 3,3 C 3,3 C 94 % 1007,5 hPa 0,2 l/m 0 min 2 min 0 W/m 9,7 km/h (2 Bft) 93,62 %
04.05.2019 03:38 4,3 C 3,3 C 3,3 C 94 % 1007,5 hPa 0,0 l/m 0 min 2 min 0 W/m 6,4 km/h (2 Bft) 93,62 %
04.05.2019 03:40 4,3 C 3,3 C 3,3 C 94 % 1007,5 hPa 0,0 l/m 0 min 2 min 0 W/m 6,4 km/h (2 Bft) 92,86 %
04.05.2019 03:42 4,3 C 3,3 C 3,3 C 94 % 1007,5 hPa 0,0 l/m 0 min 2 min 0 W/m 6,4 km/h (2 Bft) 93,88 %
04.05.2019 03:44 4,3 C 3,3 C 3,3 C 94 % 1007,5 hPa 0,0 l/m 0 min 2 min 0 W/m 6,4 km/h (2 Bft) 93,75 %
04.05.2019 03:46 4,3 C 3,3 C 3,3 C 95 % 1007,5 hPa 0,0 l/m 0 min 2 min 0 W/m 6,4 km/h (2 Bft) 95,83 %
04.05.2019 03:48 4,3 C 3,3 C 3,3 C 95 % 1007,6 hPa 0,0 l/m 0 min 2 min 0 W/m 6,4 km/h (2 Bft) 91,49 %
04.05.2019 03:50 4,3 C 3,3 C 3,3 C 95 % 1007,6 hPa 0,2 l/m 0 min 2 min 0 W/m 6,4 km/h (2 Bft) 89,13 %
04.05.2019 03:52 4,2 C 3,3 C 3,3 C 95 % 1007,5 hPa 0,0 l/m 0 min 2 min 0 W/m 12,9 km/h (3 Bft) 95,35 %
04.05.2019 03:54 4,2 C 3,3 C 3,3 C 94 % 1007,5 hPa 0,0 l/m 0 min 2 min 0 W/m 12,9 km/h (3 Bft) 91,84 %
04.05.2019 03:56 4,2 C 3,3 C 3,3 C 94 % 1007,6 hPa 0,2 l/m 0 min 2 min 0 W/m 6,4 km/h (2 Bft) 93,75 %
04.05.2019 03:58 4,2 C 3,3 C 3,3 C 95 % 1007,6 hPa 0,0 l/m 0 min 2 min 0 W/m 9,7 km/h (2 Bft) 93,75 %
04.05.2019 04:00 4,2 C 3,3 C 3,3 C 95 % 1007,6 hPa 0,0 l/m 0 min 2 min 0 W/m 6,4 km/h (2 Bft) 95,74 %
04.05.2019 04:02 4,2 C 3,3 C 3,3 C 95 % 1007,6 hPa 0,0 l/m 0 min 2 min 0 W/m 9,7 km/h (2 Bft) 100,00 %
04.05.2019 04:04 4,2 C 3,3 C 3,3 C 95 % 1007,6 hPa 0,0 l/m 0 min 2 min 0 W/m 12,9 km/h (3 Bft) 100,00 %
04.05.2019 04:06 4,2 C 3,3 C 3,3 C 95 % 1007,7 hPa 0,2 l/m 0 min 2 min 0 W/m 19,3 km/h (3 Bft) 93,62 %
04.05.2019 04:08 4,1 C 2,8 C 3,3 C 95 % 1007,7 hPa 0,0 l/m 0 min 2 min 0 W/m 16,1 km/h (3 Bft) 92,86 %
04.05.2019 04:10 4,1 C 2,8 C 2,8 C 95 % 1007,6 hPa 0,2 l/m 0 min 2 min 0 W/m 25,7 km/h (4 Bft) 95,92 %
04.05.2019 04:12 4,1 C 2,8 C 2,8 C 95 % 1007,6 hPa 0,0 l/m 0 min 2 min 0 W/m 19,3 km/h (3 Bft) 95,92 %
04.05.2019 04:14 4,1 C 2,8 C 2,8 C 95 % 1007,8 hPa 0,0 l/m 0 min 2 min 0 W/m 12,9 km/h (3 Bft) 95,74 %
04.05.2019 04:16 4,0 C 2,8 C 2,8 C 95 % 1007,7 hPa 0,2 l/m 0 min 2 min 0 W/m 19,3 km/h (3 Bft) 95,74 %
04.05.2019 04:18 3,9 C 2,8 C 2,8 C 95 % 1007,7 hPa 0,0 l/m 0 min 2 min 0 W/m 19,3 km/h (3 Bft) 95,74 %
04.05.2019 04:20 3,9 C 2,8 C 2,8 C 95 % 1007,7 hPa 0,2 l/m 0 min 2 min 0 W/m 9,7 km/h (2 Bft) 95,24 %
04.05.2019 04:22 3,9 C 2,8 C 2,8 C 95 % 1007,7 hPa 0,0 l/m 0 min 2 min 0 W/m 16,1 km/h (3 Bft) 95,92 %
04.05.2019 04:24 3,8 C 2,8 C 2,8 C 95 % 1007,8 hPa 0,0 l/m 0 min 2 min 0 W/m 16,1 km/h (3 Bft) 93,88 %
04.05.2019 04:26 3,8 C 2,8 C 2,8 C 95 % 1007,8 hPa 0,0 l/m 0 min 2 min 0 W/m 12,9 km/h (3 Bft) 97,87 %
04.05.2019 04:28 3,7 C 2,8 C 2,8 C 95 % 1007,8 hPa 0,0 l/m 0 min 2 min 0 W/m 19,3 km/h (3 Bft) 95,74 %
04.05.2019 04:30 3,7 C 2,2 C 2,8 C 95 % 1007,8 hPa 0,2 l/m 0 min 2 min 0 W/m 12,9 km/h (3 Bft) 97,87 %
04.05.2019 04:32 3,7 C 2,2 C 2,2 C 95 % 1007,8 hPa 0,0 l/m 0 min 2 min 0 W/m 9,7 km/h (2 Bft) 97,67 %
04.05.2019 04:34 3,6 C 2,8 C 2,2 C 95 % 1007,8 hPa 0,0 l/m 0 min 2 min 0 W/m 9,7 km/h (2 Bft) 100,00 %
04.05.2019 04:36 3,6 C 2,8 C 2,2 C 95 % 1007,8 hPa 0,0 l/m 0 min 2 min 0 W/m 6,4 km/h (2 Bft) 100,00 %
04.05.2019 04:38 3,6 C 2,8 C 2,8 C 95 % 1007,8 hPa 0,2 l/m 0 min 2 min 0 W/m 9,7 km/h (2 Bft) 97,87 %
04.05.2019 04:40 3,6 C 2,2 C 2,8 C 95 % 1007,8 hPa 0,0 l/m 0 min 2 min 0 W/m 19,3 km/h (3 Bft) 97,87 %
04.05.2019 04:42 3,6 C 2,2 C 2,8 C 95 % 1007,7 hPa 0,0 l/m 0 min 2 min 0 W/m 3,2 km/h (1 Bft) 100,00 %
04.05.2019 04:44 3,5 C 2,2 C 2,8 C 95 % 1007,7 hPa 0,0 l/m 0 min 2 min 0 W/m 6,4 km/h (2 Bft) 100,00 %
04.05.2019 04:46 3,5 C 2,2 C 2,8 C 95 % 1007,7 hPa 0,0 l/m 0 min 2 min 0 W/m 3,2 km/h (1 Bft) 97,87 %
04.05.2019 04:48 3,5 C 2,2 C 2,2 C 95 % 1007,6 hPa 0,0 l/m 0 min 2 min 0 W/m 3,2 km/h (1 Bft) 100,00 %
04.05.2019 04:50 3,5 C 2,2 C 2,2 C 95 % 1007,6 hPa 0,0 l/m 0 min 2 min 0 W/m 6,4 km/h (2 Bft) 97,87 %
04.05.2019 04:52 3,4 C 2,2 C 2,2 C 95 % 1007,5 hPa 0,2 l/m 0 min 2 min 0 W/m 3,2 km/h (1 Bft) 97,87 %
04.05.2019 04:54 3,4 C 2,2 C 2,2 C 95 % 1007,5 hPa 0,0 l/m 0 min 2 min 0 W/m 3,2 km/h (1 Bft) 100,00 %
04.05.2019 04:56 3,4 C 2,2 C 2,2 C 95 % 1007,5 hPa 0,0 l/m 0 min 2 min 0 W/m 3,2 km/h (1 Bft) 100,00 %
04.05.2019 04:58 3,4 C 2,2 C 2,2 C 95 % 1007,4 hPa 0,0 l/m 0 min 2 min 0 W/m 3,2 km/h (1 Bft) 100,00 %
04.05.2019 05:00 3,4 C 2,2 C 2,2 C 95 % 1007,5 hPa 0,0 l/m 0 min 2 min 0 W/m 3,2 km/h (1 Bft) 97,87 %
04.05.2019 05:02 3,3 C 2,2 C 2,2 C 95 % 1007,5 hPa 0,0 l/m 0 min 2 min 0 W/m 3,2 km/h (1 Bft) 100,00 %
04.05.2019 05:04 3,4 C 2,2 C 2,2 C 95 % 1007,6 hPa 0,0 l/m 0 min 2 min 0 W/m 0,0 km/h (0 Bft) 100,00 %
04.05.2019 05:05 3,3 C 2,2 C 2,2 C 95 % 1007,5 hPa 0,0 l/m 0 min 1 min 0 W/m 3,2 km/h (1 Bft) 100,00 %
04.05.2019 05:10 3,3 C 2,2 C 2,2 C 95 % 1007,5 hPa 0,2 l/m 0 min 5 min 0 W/m 3,2 km/h (1 Bft) 100,00 %
04.05.2019 05:12 3,3 C 2,2 C 2,2 C 95 % 1007,4 hPa 0,0 l/m 0 min 2 min 0 W/m 0,0 km/h (0 Bft) 90,91 %
04.05.2019 05:14 3,3 C 2,2 C 2,2 C 95 % 1007,4 hPa 0,0 l/m 0 min 2 min 0 W/m 3,2 km/h (1 Bft) 100,00 %
04.05.2019 05:19 3,2 C 2,2 C 2,2 C 95 % 1007,3 hPa 0,0 l/m 0 min 5 min 0 W/m 0,0 km/h (0 Bft) 100,00 %
04.05.2019 05:20 3,2 C 2,2 C 2,2 C 95 % 1007,3 hPa 0,0 l/m 0 min 1 min 0 W/m 3,2 km/h (1 Bft) 100,00 %
04.05.2019 05:22 3,2 C 2,2 C 2,2 C 95 % 1007,2 hPa 0,0 l/m 0 min 2 min 0 W/m 0,0 km/h (0 Bft) 97,87 %
04.05.2019 05:24 3,2 C 2,2 C 2,2 C 95 % 1007,3 hPa 0,0 l/m 0 min 2 min 0 W/m 3,2 km/h (1 Bft) 100,00 %
04.05.2019 05:26 3,2 C 2,2 C 2,2 C 95 % 1007,3 hPa 0,0 l/m 0 min 2 min 0 W/m 3,2 km/h (1 Bft) 95,74 %
04.05.2019 05:28 3,2 C 2,2 C 2,2 C 95 % 1007,4 hPa 0,0 l/m 0 min 2 min 0 W/m 0,0 km/h (0 Bft) 100,00 %
04.05.2019 05:30 3,2 C 2,2 C 2,2 C 95 % 1007,3 hPa 0,0 l/m 0 min 2 min 0 W/m 0,0 km/h (0 Bft) 100,00 %
04.05.2019 05:32 3,2 C 2,2 C 2,2 C 95 % 1007,4 hPa 0,0 l/m 0 min 2 min 0 W/m 0,0 km/h (0 Bft) 97,87 %
04.05.2019 05:34 3,2 C 2,2 C 2,2 C 95 % 1007,4 hPa 0,0 l/m 0 min 2 min 0 W/m 3,2 km/h (1 Bft) 97,87 %
04.05.2019 05:36 3,2 C 2,2 C 2,2 C 95 % 1007,4 hPa 0,0 l/m 0 min 2 min 0 W/m 0,0 km/h (0 Bft) 100,00 %
04.05.2019 05:38 3,2 C 2,2 C 2,2 C 95 % 1007,4 hPa 0,2 l/m 0 min 2 min 0 W/m 0,0 km/h (0 Bft) 100,00 %
04.05.2019 05:40 3,2 C 2,2 C 2,2 C 95 % 1007,4 hPa 0,0 l/m 0 min 2 min 0 W/m 0,0 km/h (0 Bft) 97,87 %
04.05.2019 05:42 3,2 C 2,2 C 2,2 C 95 % 1007,4 hPa 0,0 l/m 0 min 2 min 0 W/m 0,0 km/h (0 Bft) 97,83 %
04.05.2019 05:44 3,2 C 2,2 C 2,2 C 95 % 1007,5 hPa 0,0 l/m 0 min 2 min 0 W/m 0,0 km/h (0 Bft) 100,00 %
04.05.2019 05:46 3,2 C 2,2 C 2,2 C 95 % 1007,5 hPa 0,0 l/m 0 min 2 min 0 W/m 3,2 km/h (1 Bft) 97,87 %
04.05.2019 05:48 3,2 C 2,2 C 2,2 C 95 % 1007,5 hPa 0,2 l/m 0 min 2 min 0 W/m 0,0 km/h (0 Bft) 97,87 %
04.05.2019 05:50 3,2 C 2,2 C 2,2 C 95 % 1007,4 hPa 0,0 l/m 0 min 2 min 0 W/m 0,0 km/h (0 Bft) 97,87 %
04.05.2019 05:52 3,2 C 2,2 C 2,2 C 95 % 1007,3 hPa 0,0 l/m 0 min 2 min 0 W/m 6,4 km/h (2 Bft) 97,87 %
04.05.2019 05:54 3,2 C 2,2 C 2,2 C 95 % 1007,4 hPa 0,0 l/m 0 min 2 min 0 W/m 6,4 km/h (2 Bft) 95,65 %
04.05.2019 05:56 3,2 C 2,2 C 2,2 C 95 % 1007,4 hPa 0,0 l/m 0 min 2 min 0 W/m 6,4 km/h (2 Bft) 97,87 %
04.05.2019 05:58 3,3 C 2,2 C 2,2 C 95 % 1007,3 hPa 0,2 l/m 0 min 2 min 0 W/m 6,4 km/h (2 Bft) 97,87 %
04.05.2019 06:00 3,2 C 2,2 C 2,2 C 95 % 1007,4 hPa 0,0 l/m 0 min 0 min 0 W/m 3,2 km/h (1 Bft) 97,87 %
04.05.2019 06:02 3,3 C 2,2 C 2,2 C 95 % 1007,4 hPa 0,0 l/m 0 min 2 min 0 W/m 3,2 km/h (1 Bft) 93,62 %
04.05.2019 06:04 3,3 C 2,2 C 2,2 C 95 % 1007,3 hPa 0,0 l/m 0 min 2 min 0 W/m 3,2 km/h (1 Bft) 97,87 %
04.05.2019 06:07 3,3 C 2,2 C 2,2 C 95 % 1007,3 hPa 0,0 l/m 0 min 3 min 0 W/m 3,2 km/h (1 Bft) 95,71 %
04.05.2019 06:08 3,3 C 2,2 C 2,2 C 95 % 1007,3 hPa 0,0 l/m 0 min 0 min 0 W/m 0,0 km/h (0 Bft) 95,65 %
04.05.2019 06:10 3,3 C 2,2 C 2,2 C 95 % 1007,3 hPa 0,0 l/m 0 min 0 min 0 W/m 0,0 km/h (0 Bft) 97,87 %
04.05.2019 06:12 3,3 C 2,2 C 2,2 C 95 % 1007,4 hPa 0,0 l/m 0 min 0 min 0 W/m 0,0 km/h (0 Bft) 100,00 %
04.05.2019 06:14 3,3 C 2,2 C 2,2 C 95 % 1007,4 hPa 0,0 l/m 0 min 0 min 0 W/m 3,2 km/h (1 Bft) 97,87 %
04.05.2019 06:16 3,3 C 2,2 C 2,2 C 95 % 1007,4 hPa 0,0 l/m 0 min 0 min 0 W/m 6,4 km/h (2 Bft) 97,87 %
04.05.2019 06:18 3,3 C 2,2 C 2,2 C 95 % 1007,4 hPa 0,0 l/m 0 min 0 min 0 W/m 3,2 km/h (1 Bft) 97,83 %
04.05.2019 06:20 3,3 C 2,2 C 2,2 C 95 % 1007,4 hPa 0,0 l/m 0 min 0 min 0 W/m 3,2 km/h (1 Bft) 95,74 %
04.05.2019 06:22 3,2 C 2,2 C 2,2 C 95 % 1007,4 hPa 0,0 l/m 0 min 0 min 0 W/m 0,0 km/h (0 Bft) 97,87 %
04.05.2019 06:24 3,3 C 2,2 C 2,2 C 95 % 1007,3 hPa 0,0 l/m 0 min 0 min 0 W/m 3,2 km/h (1 Bft) 95,74 %
04.05.2019 06:26 3,3 C 2,2 C 2,2 C 95 % 1007,3 hPa 0,0 l/m 0 min 0 min 4 W/m 0,0 km/h (0 Bft) 97,87 %
04.05.2019 06:28 3,3 C 2,2 C 2,2 C 96 % 1007,3 hPa 0,0 l/m 0 min 0 min 5 W/m 0,0 km/h (0 Bft) 100,00 %
04.05.2019 06:30 3,3 C 2,2 C 2,2 C 96 % 1007,3 hPa 0,0 l/m 0 min 0 min 5 W/m 0,0 km/h (0 Bft) 97,87 %
04.05.2019 06:32 3,3 C 2,2 C 2,2 C 96 % 1007,3 hPa 0,0 l/m 0 min 0 min 7 W/m 0,0 km/h (0 Bft) 97,87 %
04.05.2019 06:34 3,3 C 2,2 C 2,2 C 96 % 1007,3 hPa 0,0 l/m 0 min 0 min 7 W/m 0,0 km/h (0 Bft) 97,87 %
04.05.2019 06:36 3,3 C 2,2 C 2,2 C 96 % 1007,3 hPa 0,0 l/m 0 min 0 min 7 W/m 0,0 km/h (0 Bft) 97,87 %
04.05.2019 06:38 3,3 C 2,2 C 2,2 C 96 % 1007,2 hPa 0,0 l/m 0 min 0 min 7 W/m 0,0 km/h (0 Bft) 97,87 %
04.05.2019 06:40 3,2 C 2,2 C 2,2 C 96 % 1007,3 hPa 0,0 l/m 0 min 0 min 7 W/m 0,0 km/h (0 Bft) 97,83 %
04.05.2019 06:42 3,2 C 2,2 C 2,2 C 96 % 1007,3 hPa 0,0 l/m 0 min 0 min 7 W/m 0,0 km/h (0 Bft) 95,74 %
04.05.2019 06:44 3,2 C 2,2 C 2,2 C 96 % 1007,3 hPa 0,0 l/m 0 min 0 min 7 W/m 0,0 km/h (0 Bft) 97,87 %
04.05.2019 06:46 3,2 C 2,2 C 2,2 C 96 % 1007,4 hPa 0,0 l/m 0 min 0 min 9 W/m 0,0 km/h (0 Bft) 97,87 %
04.05.2019 06:48 3,2 C 2,2 C 2,2 C 96 % 1007,3 hPa 0,0 l/m 0 min 0 min 9 W/m 3,2 km/h (1 Bft) 97,87 %
04.05.2019 06:50 3,2 C 2,2 C 2,2 C 96 % 1007,3 hPa 0,0 l/m 0 min 0 min 9 W/m 3,2 km/h (1 Bft) 97,87 %
04.05.2019 06:52 3,2 C 2,2 C 2,2 C 96 % 1007,4 hPa 0,0 l/m 0 min 0 min 10 W/m 0,0 km/h (0 Bft) 97,83 %
04.05.2019 06:54 3,2 C 2,2 C 2,2 C 96 % 1007,3 hPa 0,0 l/m 0 min 0 min 11 W/m 3,2 km/h (1 Bft) 97,87 %
04.05.2019 06:56 3,2 C 2,2 C 2,2 C 96 % 1007,3 hPa 0,0 l/m 0 min 0 min 11 W/m 0,0 km/h (0 Bft) 97,87 %
04.05.2019 06:58 3,2 C 2,2 C 2,2 C 96 % 1007,4 hPa 0,0 l/m 0 min 0 min 11 W/m 3,2 km/h (1 Bft) 93,62 %
04.05.2019 07:00 3,2 C 2,2 C 2,2 C 96 % 1007,5 hPa 0,0 l/m 0 min 0 min 11 W/m 3,2 km/h (1 Bft) 97,87 %
04.05.2019 07:02 3,1 C 2,2 C 2,2 C 96 % 1007,5 hPa 0,0 l/m 0 min 0 min 12 W/m 0,0 km/h (0 Bft) 97,87 %
04.05.2019 07:04 3,1 C 2,2 C 2,2 C 96 % 1007,6 hPa 0,0 l/m 0 min 0 min 11 W/m 3,2 km/h (1 Bft) 97,83 %
04.05.2019 07:06 3,2 C 2,2 C 2,2 C 96 % 1007,7 hPa 0,0 l/m 0 min 0 min 11 W/m 3,2 km/h (1 Bft) 97,87 %
04.05.2019 07:08 3,2 C 2,8 C 2,8 C 96 % 1007,7 hPa 0,0 l/m 0 min 0 min 10 W/m 3,2 km/h (1 Bft) 97,87 %
04.05.2019 07:10 3,2 C 2,8 C 2,8 C 96 % 1007,7 hPa 0,0 l/m 0 min 2 min 9 W/m 0,0 km/h (0 Bft) 97,87 %
04.05.2019 07:12 3,2 C 2,8 C 2,8 C 96 % 1007,8 hPa 0,0 l/m 0 min 2 min 6 W/m 0,0 km/h (0 Bft) 97,87 %
04.05.2019 07:14 3,3 C 2,8 C 2,8 C 96 % 1007,9 hPa 0,0 l/m 0 min 2 min 9 W/m 6,4 km/h (2 Bft) 97,87 %
04.05.2019 07:16 3,3 C 2,8 C 2,2 C 96 % 1007,9 hPa 0,0 l/m 0 min 2 min 9 W/m 6,4 km/h (2 Bft) 95,65 %
04.05.2019 07:18 3,3 C 2,8 C 2,2 C 96 % 1007,8 hPa 0,2 l/m 0 min 2 min 10 W/m 3,2 km/h (1 Bft) 97,87 %
04.05.2019 07:20 3,3 C 2,2 C 2,2 C 96 % 1007,7 hPa 0,0 l/m 0 min 2 min 15 W/m 9,7 km/h (2 Bft) 100,00 %
04.05.2019 07:22 3,3 C 2,8 C 2,8 C 96 % 1007,7 hPa 0,0 l/m 0 min 2 min 16 W/m 3,2 km/h (1 Bft) 97,87 %
04.05.2019 07:24 3,3 C 2,8 C 2,8 C 96 % 1007,7 hPa 0,0 l/m 0 min 0 min 22 W/m 3,2 km/h (1 Bft) 100,00 %
04.05.2019 07:26 3,3 C 2,8 C 2,8 C 96 % 1007,6 hPa 0,0 l/m 0 min 2 min 30 W/m 9,7 km/h (2 Bft) 100,00 %
04.05.2019 07:28 3,3 C 2,8 C 2,8 C 96 % 1007,7 hPa 0,0 l/m 0 min 0 min 37 W/m 9,7 km/h (2 Bft) 97,83 %
04.05.2019 07:30 3,4 C 2,8 C 2,8 C 96 % 1007,7 hPa 0,0 l/m 0 min 0 min 38 W/m 9,7 km/h (2 Bft) 100,00 %
04.05.2019 07:32 3,4 C 2,8 C 2,8 C 96 % 1007,7 hPa 0,0 l/m 0 min 0 min 34 W/m 3,2 km/h (1 Bft) 95,74 %
04.05.2019 07:34 3,4 C 2,8 C 2,8 C 96 % 1007,7 hPa 0,0 l/m 0 min 0 min 30 W/m 6,4 km/h (2 Bft) 97,87 %
04.05.2019 07:36 3,4 C 2,8 C 2,8 C 96 % 1007,7 hPa 0,0 l/m 0 min 0 min 26 W/m 6,4 km/h (2 Bft) 97,87 %
04.05.2019 07:38 3,5 C 2,8 C 2,8 C 96 % 1007,7 hPa 0,0 l/m 0 min 0 min 26 W/m 6,4 km/h (2 Bft) 97,87 %
04.05.2019 07:40 3,6 C 3,3 C 2,8 C 96 % 1007,8 hPa 0,0 l/m 0 min 0 min 26 W/m 3,2 km/h (1 Bft) 95,65 %
04.05.2019 07:42 3,6 C 2,8 C 2,8 C 96 % 1007,7 hPa 0,0 l/m 0 min 2 min 26 W/m 3,2 km/h (1 Bft) 95,74 %
04.05.2019 07:44 3,6 C 2,8 C 2,8 C 96 % 1007,6 hPa 0,0 l/m 0 min 0 min 26 W/m 3,2 km/h (1 Bft) 97,87 %
04.05.2019 07:46 3,6 C 2,8 C 2,8 C 96 % 1007,8 hPa 0,0 l/m 0 min 0 min 26 W/m 6,4 km/h (2 Bft) 97,87 %
04.05.2019 07:48 3,6 C 2,8 C 2,8 C 96 % 1007,8 hPa 0,0 l/m 0 min 0 min 23 W/m 0,0 km/h (0 Bft) 97,87 %
04.05.2019 07:50 3,6 C 3,3 C 2,8 C 96 % 1007,8 hPa 0,0 l/m 0 min 0 min 20 W/m 3,2 km/h (1 Bft) 97,83 %
04.05.2019 07:52 3,7 C 3,3 C 3,3 C 96 % 1007,8 hPa 0,0 l/m 0 min 2 min 26 W/m 0,0 km/h (0 Bft) 97,87 %
04.05.2019 07:54 3,7 C 3,3 C 3,3 C 96 % 1007,7 hPa 0,0 l/m 0 min 2 min 43 W/m 3,2 km/h (1 Bft) 97,87 %
04.05.2019 07:56 3,7 C 3,3 C 3,3 C 96 % 1007,7 hPa 0,0 l/m 0 min 2 min 59 W/m 3,2 km/h (1 Bft) 97,87 %
04.05.2019 07:58 3,7 C 3,3 C 3,3 C 96 % 1007,7 hPa 0,0 l/m 0 min 0 min 71 W/m 3,2 km/h (1 Bft) 97,87 %
04.05.2019 08:00 3,8 C 3,3 C 3,3 C 96 % 1007,7 hPa 0,0 l/m 0 min 0 min 78 W/m 6,4 km/h (2 Bft) 95,74 %
04.05.2019 08:02 3,8 C 3,3 C 3,3 C 96 % 1007,7 hPa 0,0 l/m 0 min 0 min 79 W/m 3,2 km/h (1 Bft) 95,65 %
04.05.2019 08:04 3,8 C 3,3 C 3,3 C 96 % 1007,7 hPa 0,0 l/m 0 min 0 min 80 W/m 3,2 km/h (1 Bft) 97,87 %
04.05.2019 08:06 3,8 C 3,3 C 3,3 C 96 % 1007,8 hPa 0,0 l/m 0 min 0 min 84 W/m 6,4 km/h (2 Bft) 93,62 %
04.05.2019 08:08 3,9 C 3,3 C 3,3 C 96 % 1007,8 hPa 0,0 l/m 0 min 0 min 86 W/m 6,4 km/h (2 Bft) 97,87 %
04.05.2019 08:10 3,9 C 3,3 C 3,3 C 96 % 1007,7 hPa 0,0 l/m 0 min 0 min 86 W/m 6,4 km/h (2 Bft) 95,74 %
04.05.2019 08:12 3,9 C 3,9 C 3,3 C 96 % 1007,8 hPa 0,0 l/m 0 min 0 min 87 W/m 6,4 km/h (2 Bft) 97,87 %
04.05.2019 08:14 3,9 C 3,9 C 3,9 C 96 % 1007,8 hPa 0,0 l/m 0 min 0 min 91 W/m 6,4 km/h (2 Bft) 95,65 %
04.05.2019 08:16 4,0 C 3,9 C 3,9 C 96 % 1007,8 hPa 0,0 l/m 0 min 0 min 94 W/m 9,7 km/h (2 Bft) 95,74 %
04.05.2019 08:18 4,0 C 3,9 C 3,9 C 96 % 1007,8 hPa 0,0 l/m 0 min 0 min 95 W/m 6,4 km/h (2 Bft) 95,74 %
04.05.2019 08:20 4,1 C 3,9 C 3,9 C 96 % 1007,8 hPa 0,0 l/m 0 min 0 min 94 W/m 6,4 km/h (2 Bft) 95,74 %
04.05.2019 08:22 4,1 C 3,9 C 3,9 C 97 % 1007,8 hPa 0,0 l/m 0 min 0 min 90 W/m 3,2 km/h (1 Bft) 95,74 %
04.05.2019 08:24 4,1 C 3,9 C 3,9 C 97 % 1007,8 hPa 0,0 l/m 0 min 0 min 91 W/m 6,4 km/h (2 Bft) 95,74 %
04.05.2019 08:26 4,2 C 3,9 C 3,9 C 97 % 1007,8 hPa 0,0 l/m 0 min 0 min 99 W/m 3,2 km/h (1 Bft) 95,65 %
04.05.2019 08:28 4,2 C 3,9 C 3,9 C 97 % 1007,8 hPa 0,0 l/m 0 min 0 min 99 W/m 6,4 km/h (2 Bft) 95,74 %
04.05.2019 08:30 4,2 C 4,4 C 3,9 C 97 % 1007,8 hPa 0,0 l/m 0 min 0 min 98 W/m 6,4 km/h (2 Bft) 95,74 %
04.05.2019 08:32 4,2 C 4,4 C 3,9 C 97 % 1007,8 hPa 0,0 l/m 0 min 0 min 97 W/m 9,7 km/h (2 Bft) 97,87 %
04.05.2019 08:34 4,2 C 4,4 C 3,9 C 97 % 1007,8 hPa 0,0 l/m 0 min 0 min 97 W/m 3,2 km/h (1 Bft) 93,62 %
04.05.2019 08:36 4,3 C 4,4 C 3,9 C 97 % 1007,7 hPa 0,0 l/m 0 min 0 min 97 W/m 3,2 km/h (1 Bft) 97,87 %
04.05.2019 08:38 4,3 C 4,4 C 3,9 C 97 % 1007,8 hPa 0,0 l/m 0 min 0 min 95 W/m 3,2 km/h (1 Bft) 97,83 %
04.05.2019 08:40 4,3 C 4,4 C 3,9 C 97 % 1007,7 hPa 0,0 l/m 0 min 0 min 100 W/m 9,7 km/h (2 Bft) 97,87 %
04.05.2019 08:42 4,3 C 4,4 C 3,9 C 97 % 1007,8 hPa 0,0 l/m 0 min 0 min 102 W/m 6,4 km/h (2 Bft) 97,87 %
04.05.2019 08:44 4,4 C 5,0 C 3,9 C 97 % 1007,7 hPa 0,0 l/m 0 min 0 min 117 W/m 9,7 km/h (2 Bft) 95,74 %
04.05.2019 08:46 4,4 C 5,0 C 3,9 C 97 % 1007,7 hPa 0,0 l/m 0 min 0 min 104 W/m 3,2 km/h (1 Bft) 97,87 %
04.05.2019 08:48 4,4 C 5,0 C 3,9 C 97 % 1007,7 hPa 0,0 l/m 0 min 0 min 151 W/m 3,2 km/h (1 Bft) 95,74 %
04.05.2019 08:50 4,4 C 6,1 C 4,4 C 97 % 1007,8 hPa 0,0 l/m 2 min 0 min 213 W/m 0,0 km/h (0 Bft) 97,83 %
04.05.2019 08:52 4,5 C 6,1 C 4,4 C 97 % 1007,8 hPa 0,0 l/m 2 min 0 min 255 W/m 6,4 km/h (2 Bft) 95,74 %
04.05.2019 08:54 4,6 C 6,7 C 5,0 C 97 % 1007,8 hPa 0,0 l/m 2 min 0 min 266 W/m 9,7 km/h (2 Bft) 95,74 %
04.05.2019 08:56 4,7 C 6,1 C 5,0 C 97 % 1007,8 hPa 0,0 l/m 2 min 0 min 232 W/m 6,4 km/h (2 Bft) 97,87 %
04.05.2019 08:58 4,7 C 6,1 C 5,0 C 97 % 1007,8 hPa 0,0 l/m 0 min 0 min 150 W/m 3,2 km/h (1 Bft) 97,87 %
04.05.2019 09:00 4,8 C 6,7 C 5,6 C 97 % 1007,8 hPa 0,0 l/m 0 min 0 min 121 W/m 9,7 km/h (2 Bft) 97,87 %
04.05.2019 09:02 4,9 C 7,8 C 6,7 C 97 % 1007,8 hPa 0,0 l/m 2 min 0 min 240 W/m 3,2 km/h (1 Bft) 97,83 %
04.05.2019 09:04 5,0 C 7,8 C 6,7 C 97 % 1007,8 hPa 0,0 l/m 2 min 0 min 304 W/m 3,2 km/h (1 Bft) 97,87 %
04.05.2019 09:06 5,1 C 7,8 C 6,7 C 97 % 1007,7 hPa 0,0 l/m 2 min 0 min 236 W/m 9,7 km/h (2 Bft) 97,87 %
04.05.2019 09:08 5,1 C 7,2 C 6,1 C 97 % 1007,7 hPa 0,0 l/m 2 min 0 min 328 W/m 6,4 km/h (2 Bft) 97,87 %
04.05.2019 09:10 5,2 C 7,8 C 6,7 C 97 % 1007,7 hPa 0,0 l/m 2 min 0 min 348 W/m 9,7 km/h (2 Bft) 93,62 %
04.05.2019 09:12 5,3 C 8,3 C 7,2 C 97 % 1007,7 hPa 0,0 l/m 2 min 0 min 327 W/m 6,4 km/h (2 Bft) 95,65 %
04.05.2019 09:14 5,4 C 8,3 C 7,2 C 97 % 1007,8 hPa 0,0 l/m 2 min 0 min 462 W/m 9,7 km/h (2 Bft) 97,87 %
04.05.2019 09:16 5,5 C 7,8 C 6,7 C 97 % 1007,8 hPa 0,0 l/m 0 min 0 min 228 W/m 9,7 km/h (2 Bft) 97,87 %
04.05.2019 09:18 5,6 C 6,7 C 5,6 C 97 % 1007,8 hPa 0,0 l/m 0 min 0 min 112 W/m 12,9 km/h (3 Bft) 95,74 %
04.05.2019 09:20 5,6 C 6,7 C 5,6 C 97 % 1007,8 hPa 0,0 l/m 0 min 0 min 122 W/m 9,7 km/h (2 Bft) 97,87 %
04.05.2019 09:22 5,6 C 6,7 C 6,1 C 97 % 1007,8 hPa 0,0 l/m 0 min 0 min 120 W/m 9,7 km/h (2 Bft) 97,87 %
04.05.2019 09:24 5,6 C 6,1 C 5,6 C 97 % 1007,7 hPa 0,0 l/m 0 min 0 min 124 W/m 6,4 km/h (2 Bft) 97,83 %
04.05.2019 09:26 5,6 C 6,1 C 5,6 C 97 % 1007,7 hPa 0,0 l/m 0 min 0 min 173 W/m 9,7 km/h (2 Bft) 95,74 %
04.05.2019 09:28 5,6 C 6,1 C 5,6 C 97 % 1007,6 hPa 0,0 l/m 0 min 0 min 153 W/m 6,4 km/h (2 Bft) 97,87 %
04.05.2019 09:30 5,6 C 7,2 C 6,1 C 97 % 1007,6 hPa 0,0 l/m 0 min 0 min 193 W/m 9,7 km/h (2 Bft) 97,87 %
04.05.2019 09:32 5,7 C 8,9 C 7,8 C 97 % 1007,6 hPa 0,0 l/m 2 min 0 min 422 W/m 6,4 km/h (2 Bft) 95,74 %
04.05.2019 09:34 5,8 C 10,6 C 9,4 C 97 % 1007,6 hPa 0,0 l/m 2 min 0 min 632 W/m 9,7 km/h (2 Bft) 93,62 %
04.05.2019 09:36 5,9 C 11,7 C 10,0 C 97 % 1007,7 hPa 0,0 l/m 2 min 0 min 684 W/m 12,9 km/h (3 Bft) 97,83 %
04.05.2019 09:38 6,1 C 10,0 C 8,9 C 97 % 1007,6 hPa 0,0 l/m 2 min 0 min 503 W/m 9,7 km/h (2 Bft) 95,74 %
04.05.2019 09:40 6,2 C 8,9 C 7,8 C 97 % 1007,6 hPa 0,0 l/m 0 min 0 min 232 W/m 9,7 km/h (2 Bft) 95,74 %
04.05.2019 09:42 6,2 C 7,8 C 6,7 C 97 % 1007,6 hPa 0,0 l/m 0 min 0 min 179 W/m 19,3 km/h (3 Bft) 97,87 %
04.05.2019 09:44 6,2 C 7,2 C 6,7 C 97 % 1007,6 hPa 0,0 l/m 0 min 0 min 158 W/m 9,7 km/h (2 Bft) 97,87 %
04.05.2019 09:46 6,2 C 7,2 C 6,7 C 97 % 1007,6 hPa 0,0 l/m 0 min 0 min 172 W/m 9,7 km/h (2 Bft) 97,87 %
04.05.2019 09:48 6,2 C 10,0 C 8,9 C 97 % 1007,6 hPa 0,0 l/m 0 min 0 min 229 W/m 16,1 km/h (3 Bft) 100,00 %
04.05.2019 09:50 6,4 C 11,1 C 10,0 C 97 % 1007,6 hPa 0,0 l/m 2 min 0 min 616 W/m 16,1 km/h (3 Bft) 100,00 %
04.05.2019 09:52 6,5 C 12,8 C 11,1 C 97 % 1007,6 hPa 0,0 l/m 2 min 0 min 620 W/m 9,7 km/h (2 Bft) 97,87 %
04.05.2019 09:54 6,7 C 13,3 C 11,7 C 97 % 1007,6 hPa 0,0 l/m 2 min 0 min 652 W/m 9,7 km/h (2 Bft) 100,00 %
04.05.2019 09:56 6,8 C 13,9 C 12,2 C 97 % 1007,6 hPa 0,0 l/m 2 min 0 min 730 W/m 16,1 km/h (3 Bft) 100,00 %
04.05.2019 09:58 7,0 C 14,4 C 12,8 C 97 % 1007,6 hPa 0,0 l/m 2 min 0 min 577 W/m 12,9 km/h (3 Bft) 97,83 %
04.05.2019 10:00 7,2 C 12,8 C 11,1 C 97 % 1007,6 hPa 0,0 l/m 2 min 0 min 772 W/m 19,3 km/h (3 Bft) 100,00 %
04.05.2019 10:02 7,2 C 10,0 C 8,9 C 97 % 1007,6 hPa 0,0 l/m 2 min 0 min 311 W/m 19,3 km/h (3 Bft) 100,00 %
04.05.2019 10:04 7,2 C 8,3 C 7,2 C 96 % 1007,6 hPa 0,0 l/m 0 min 0 min 149 W/m 16,1 km/h (3 Bft) 100,00 %
04.05.2019 10:06 7,1 C 6,7 C 6,1 C 96 % 1007,6 hPa 0,0 l/m 0 min 0 min 101 W/m 32,2 km/h (5 Bft) 100,00 %
04.05.2019 10:08 7,0 C 6,7 C 6,1 C 95 % 1007,6 hPa 0,2 l/m 0 min 0 min 89 W/m 12,9 km/h (3 Bft) 97,87 %
04.05.2019 10:10 6,9 C 6,1 C 6,1 C 95 % 1007,6 hPa 0,0 l/m 0 min 0 min 96 W/m 16,1 km/h (3 Bft) 100,00 %
04.05.2019 10:12 6,8 C 6,1 C 5,6 C 94 % 1007,6 hPa 0,0 l/m 0 min 0 min 92 W/m 16,1 km/h (3 Bft) 100,00 %
04.05.2019 10:14 6,7 C 6,1 C 5,6 C 94 % 1007,6 hPa 0,0 l/m 0 min 0 min 91 W/m 16,1 km/h (3 Bft) 97,87 %
04.05.2019 10:16 6,7 C 10,0 C 8,9 C 93 % 1007,6 hPa 0,0 l/m 2 min 0 min 369 W/m 9,7 km/h (2 Bft) 100,00 %
04.05.2019 10:18 6,9 C 11,7 C 10,6 C 94 % 1007,6 hPa 0,0 l/m 2 min 0 min 703 W/m 16,1 km/h (3 Bft) 97,87 %
04.05.2019 10:20 7,1 C 12,8 C 11,7 C 94 % 1007,6 hPa 0,0 l/m 2 min 0 min 725 W/m 12,9 km/h (3 Bft) 100,00 %
04.05.2019 10:22 7,2 C 13,9 C 12,2 C 94 % 1007,5 hPa 0,0 l/m 2 min 0 min 778 W/m 19,3 km/h (3 Bft) 100,00 %
04.05.2019 10:24 7,4 C 13,3 C 11,1 C 93 % 1007,6 hPa 0,0 l/m 2 min 0 min 788 W/m 16,1 km/h (3 Bft) 100,00 %
04.05.2019 10:26 7,6 C 14,4 C 11,7 C 93 % 1007,6 hPa 0,0 l/m 2 min 0 min 792 W/m 16,1 km/h (3 Bft) 100,00 %
04.05.2019 10:28 7,8 C 15,6 C 12,8 C 93 % 1007,6 hPa 0,0 l/m 2 min 0 min 812 W/m 16,1 km/h (3 Bft) 100,00 %
04.05.2019 10:30 8,1 C 17,2 C 13,3 C 93 % 1007,6 hPa 0,0 l/m 2 min 0 min 800 W/m 16,1 km/h (3 Bft) 97,87 %
04.05.2019 10:32 8,3 C 18,3 C 13,9 C 92 % 1007,6 hPa 0,0 l/m 2 min 0 min 799 W/m 12,9 km/h (3 Bft) 95,74 %
04.05.2019 10:34 8,4 C 18,9 C 13,9 C 92 % 1007,6 hPa 0,0 l/m 2 min 0 min 812 W/m 19,3 km/h (3 Bft) 97,83 %
04.05.2019 10:36 8,6 C 18,3 C 13,3 C 91 % 1007,5 hPa 0,0 l/m 2 min 0 min 821 W/m 19,3 km/h (3 Bft) 97,87 %
04.05.2019 10:38 8,7 C 18,3 C 13,3 C 90 % 1007,5 hPa 0,0 l/m 2 min 0 min 822 W/m 22,5 km/h (4 Bft) 97,87 %
04.05.2019 10:40 8,9 C 18,3 C 13,9 C 89 % 1007,6 hPa 0,0 l/m 2 min 0 min 840 W/m 19,3 km/h (3 Bft) 97,87 %
04.05.2019 10:42 9,1 C 19,4 C 15,0 C 88 % 1007,5 hPa 0,0 l/m 2 min 0 min 885 W/m 6,4 km/h (2 Bft) 97,87 %
04.05.2019 10:44 9,3 C 20,6 C 16,7 C 88 % 1007,6 hPa 0,0 l/m 2 min 0 min 845 W/m 9,7 km/h (2 Bft) 95,74 %
04.05.2019 10:46 9,5 C 16,7 C 14,4 C 87 % 1007,5 hPa 0,0 l/m 2 min 0 min 464 W/m 9,7 km/h (2 Bft) 97,83 %
04.05.2019 10:48 9,6 C 13,3 C 12,2 C 86 % 1007,5 hPa 0,0 l/m 0 min 0 min 136 W/m 9,7 km/h (2 Bft) 97,87 %
04.05.2019 10:50 9,6 C 11,7 C 10,6 C 84 % 1007,6 hPa 0,0 l/m 0 min 0 min 124 W/m 16,1 km/h (3 Bft) 97,87 %
04.05.2019 10:52 9,5 C 10,0 C 10,0 C 83 % 1007,6 hPa 0,0 l/m 0 min 0 min 126 W/m 16,1 km/h (3 Bft) 95,74 %
04.05.2019 10:54 9,4 C 13,3 C 12,8 C 82 % 1007,6 hPa 0,0 l/m 0 min 0 min 325 W/m 29,0 km/h (5 Bft) 97,87 %
04.05.2019 10:56 9,4 C 15,6 C 14,4 C 81 % 1007,6 hPa 0,0 l/m 2 min 0 min 809 W/m 19,3 km/h (3 Bft) 97,87 %
04.05.2019 10:58 9,4 C 17,8 C 16,1 C 81 % 1007,5 hPa 0,0 l/m 2 min 0 min 820 W/m 9,7 km/h (2 Bft) 97,83 %
04.05.2019 11:00 9,6 C 18,9 C 17,8 C 81 % 1007,5 hPa 0,0 l/m 2 min 0 min 851 W/m 9,7 km/h (2 Bft) 97,87 %
04.05.2019 11:02 9,7 C 20,0 C 18,3 C 81 % 1007,5 hPa 0,0 l/m 2 min 0 min 896 W/m 9,7 km/h (2 Bft) 97,87 %
04.05.2019 11:04 9,9 C 19,4 C 18,9 C 80 % 1007,4 hPa 0,0 l/m 2 min 0 min 955 W/m 19,3 km/h (3 Bft) 97,87 %
04.05.2019 11:06 10,2 C 19,4 C 18,3 C 79 % 1007,5 hPa 0,0 l/m 2 min 0 min 964 W/m 16,1 km/h (3 Bft) 95,74 %
04.05.2019 11:08 10,3 C 18,9 C 17,8 C 78 % 1007,6 hPa 0,0 l/m 2 min 0 min 965 W/m 19,3 km/h (3 Bft) 97,87 %
04.05.2019 11:10 10,4 C 16,7 C 16,1 C 78 % 1007,5 hPa 0,0 l/m 2 min 0 min 847 W/m 12,9 km/h (3 Bft) 97,83 %
04.05.2019 11:12 10,4 C 13,3 C 12,8 C 76 % 1007,5 hPa 0,0 l/m 0 min 0 min 164 W/m 16,1 km/h (3 Bft) 97,87 %
04.05.2019 11:14 10,3 C 11,7 C 11,1 C 76 % 1007,6 hPa 0,0 l/m 0 min 0 min 136 W/m 16,1 km/h (3 Bft) 100,00 %
04.05.2019 11:16 10,1 C 10,0 C 10,0 C 74 % 1007,6 hPa 0,0 l/m 0 min 0 min 111 W/m 16,1 km/h (3 Bft) 100,00 %
04.05.2019 11:18 10,0 C 9,4 C 9,4 C 75 % 1007,5 hPa 0,0 l/m 0 min 0 min 97 W/m 12,9 km/h (3 Bft) 97,87 %
04.05.2019 11:20 9,9 C 13,3 C 12,8 C 75 % 1007,6 hPa 0,0 l/m 2 min 0 min 419 W/m 16,1 km/h (3 Bft) 97,83 %
04.05.2019 11:22 9,9 C 16,1 C 15,0 C 75 % 1007,5 hPa 0,0 l/m 2 min 0 min 835 W/m 9,7 km/h (2 Bft) 97,87 %
04.05.2019 11:24 9,9 C 17,8 C 17,2 C 75 % 1007,4 hPa 0,0 l/m 2 min 0 min 837 W/m 16,1 km/h (3 Bft) 97,87 %
04.05.2019 11:26 10,1 C 18,9 C 18,3 C 76 % 1007,4 hPa 0,0 l/m 2 min 0 min 848 W/m 16,1 km/h (3 Bft) 97,87 %
04.05.2019 11:28 10,2 C 20,0 C 19,4 C 76 % 1007,3 hPa 0,0 l/m 2 min 0 min 860 W/m 16,1 km/h (3 Bft) 97,87 %
04.05.2019 11:30 10,4 C 20,6 C 20,0 C 76 % 1007,4 hPa 0,0 l/m 2 min 0 min 875 W/m 22,5 km/h (4 Bft) 97,87 %
04.05.2019 11:32 10,6 C 21,1 C 20,6 C 76 % 1007,3 hPa 0,0 l/m 2 min 0 min 900 W/m 16,1 km/h (3 Bft) 97,83 %
04.05.2019 11:34 10,8 C 21,1 C 21,1 C 76 % 1007,4 hPa 0,0 l/m 2 min 0 min 963 W/m 16,1 km/h (3 Bft) 97,87 %
04.05.2019 11:36 11,1 C 20,6 C 21,1 C 76 % 1007,4 hPa 0,0 l/m 2 min 0 min 746 W/m 16,1 km/h (3 Bft) 95,74 %
04.05.2019 11:38 11,1 C 17,2 C 16,7 C 74 % 1007,4 hPa 0,0 l/m 2 min 0 min 650 W/m 32,2 km/h (5 Bft) 97,87 %
04.05.2019 11:40 11,1 C 13,9 C 13,9 C 72 % 1007,5 hPa 0,0 l/m 0 min 0 min 185 W/m 22,5 km/h (4 Bft) 97,87 %
04.05.2019 11:42 11,0 C 12,2 C 12,8 C 71 % 1007,5 hPa 0,0 l/m 0 min 0 min 168 W/m 19,3 km/h (3 Bft) 97,87 %
04.05.2019 11:44 10,9 C 11,1 C 11,7 C 71 % 1007,4 hPa 0,0 l/m 0 min 0 min 170 W/m 19,3 km/h (3 Bft) 97,83 %
04.05.2019 11:46 10,7 C 10,0 C 9,4 C 70 % 1007,7 hPa 0,0 l/m 0 min 2 min 161 W/m 32,2 km/h (5 Bft) 97,87 %
04.05.2019 11:48 10,5 C 8,9 C 8,3 C 72 % 1007,6 hPa 0,0 l/m 0 min 2 min 209 W/m 29,0 km/h (5 Bft) 95,74 %
04.05.2019 11:50 10,2 C 8,3 C 7,8 C 73 % 1007,7 hPa 0,0 l/m 0 min 2 min 266 W/m 22,5 km/h (4 Bft) 97,87 %
04.05.2019 11:52 10,0 C 8,3 C 7,8 C 74 % 1007,8 hPa 0,0 l/m 0 min 2 min 252 W/m 19,3 km/h (3 Bft) 95,74 %
04.05.2019 11:54 9,7 C 8,3 C 7,8 C 74 % 1007,9 hPa 0,0 l/m 0 min 2 min 234 W/m 38,6 km/h (5 Bft) 95,74 %
04.05.2019 11:56 9,3 C 7,8 C 7,2 C 74 % 1007,9 hPa 0,0 l/m 0 min 2 min 174 W/m 29,0 km/h (5 Bft) 97,83 %
04.05.2019 11:58 9,0 C 7,2 C 6,7 C 74 % 1007,8 hPa 0,0 l/m 0 min 2 min 111 W/m 19,3 km/h (3 Bft) 100,00 %
04.05.2019 12:00 8,7 C 7,2 C 6,7 C 76 % 1007,9 hPa 0,0 l/m 0 min 2 min 99 W/m 32,2 km/h (5 Bft) 100,00 %
04.05.2019 12:02 8,3 C 6,7 C 6,1 C 76 % 1007,9 hPa 0,0 l/m 0 min 2 min 87 W/m 25,7 km/h (4 Bft) 100,00 %
04.05.2019 12:04 7,9 C 6,1 C 5,6 C 76 % 1007,9 hPa 0,0 l/m 0 min 2 min 65 W/m 22,5 km/h (4 Bft) 100,00 %
04.05.2019 12:07 7,5 C 5,6 C 5,0 C 76 % 1007,8 hPa 0,0 l/m 0 min 3 min 68 W/m 16,1 km/h (3 Bft) 100,00 %
04.05.2019 12:08 7,4 C 5,6 C 5,0 C 76 % 1007,8 hPa 0,0 l/m 0 min 1 min 99 W/m 16,1 km/h (3 Bft) 100,00 %
04.05.2019 12:10 7,3 C 6,1 C 5,6 C 77 % 1007,8 hPa 0,0 l/m 0 min 2 min 125 W/m 9,7 km/h (2 Bft) 100,00 %
04.05.2019 12:12 7,2 C 6,1 C 5,6 C 78 % 1007,8 hPa 0,0 l/m 0 min 2 min 147 W/m 12,9 km/h (3 Bft) 100,00 %
04.05.2019 12:14 7,2 C 7,2 C 6,1 C 79 % 1007,8 hPa 0,0 l/m 0 min 2 min 208 W/m 12,9 km/h (3 Bft) 97,87 %
04.05.2019 12:16 7,2 C 11,7 C 10,6 C 79 % 1007,8 hPa 0,0 l/m 2 min 0 min 388 W/m 9,7 km/h (2 Bft) 100,00 %
04.05.2019 12:18 7,3 C 14,4 C 13,3 C 80 % 1007,9 hPa 0,0 l/m 2 min 0 min 898 W/m 19,3 km/h (3 Bft) 100,00 %
04.05.2019 12:20 7,6 C 16,1 C 15,6 C 81 % 1007,9 hPa 0,0 l/m 2 min 0 min 871 W/m 12,9 km/h (3 Bft) 100,00 %
04.05.2019 12:22 7,9 C 17,8 C 17,2 C 82 % 1007,8 hPa 0,0 l/m 2 min 0 min 906 W/m 16,1 km/h (3 Bft) 100,00 %
04.05.2019 12:24 8,2 C 18,3 C 17,8 C 82 % 1007,8 hPa 0,0 l/m 2 min 0 min 910 W/m 12,9 km/h (3 Bft) 100,00 %
04.05.2019 12:26 8,4 C 17,2 C 17,2 C 81 % 1007,8 hPa 0,0 l/m 2 min 0 min 914 W/m 16,1 km/h (3 Bft) 100,00 %
04.05.2019 12:28 8,7 C 18,3 C 18,3 C 80 % 1007,8 hPa 0,0 l/m 2 min 0 min 912 W/m 9,7 km/h (2 Bft) 100,00 %
04.05.2019 12:30 8,9 C 18,3 C 18,3 C 79 % 1007,8 hPa 0,0 l/m 2 min 0 min 910 W/m 9,7 km/h (2 Bft) 97,87 %
04.05.2019 12:32 9,2 C 19,4 C 19,4 C 79 % 1007,7 hPa 0,0 l/m 2 min 0 min 912 W/m 6,4 km/h (2 Bft) 100,00 %
04.05.2019 12:34 9,4 C 19,4 C 19,4 C 79 % 1007,7 hPa 0,0 l/m 2 min 0 min 912 W/m 12,9 km/h (3 Bft) 100,00 %
04.05.2019 12:36 9,9 C 20,6 C 20,6 C 80 % 1007,7 hPa 0,0 l/m 2 min 0 min 933 W/m 16,1 km/h (3 Bft) 100,00 %
04.05.2019 12:38 10,2 C 18,9 C 20,0 C 79 % 1007,7 hPa 0,0 l/m 2 min 0 min 969 W/m 12,9 km/h (3 Bft) 100,00 %
04.05.2019 12:40 10,4 C 18,9 C 19,4 C 76 % 1007,7 hPa 0,0 l/m 2 min 0 min 994 W/m 12,9 km/h (3 Bft) 100,00 %
04.05.2019 12:42 10,6 C 20,6 C 20,6 C 76 % 1007,6 hPa 0,0 l/m 2 min 0 min 1035 W/m 9,7 km/h (2 Bft) 100,00 %
04.05.2019 12:44 10,9 C 21,1 C 20,6 C 77 % 1007,6 hPa 0,0 l/m 2 min 0 min 1109 W/m 12,9 km/h (3 Bft) 100,00 %
04.05.2019 12:46 11,1 C 16,7 C 17,2 C 74 % 1007,5 hPa 0,0 l/m 2 min 0 min 520 W/m 12,9 km/h (3 Bft) 95,74 %
04.05.2019 12:48 11,1 C 14,4 C 15,6 C 72 % 1007,6 hPa 0,0 l/m 0 min 0 min 341 W/m 32,2 km/h (5 Bft) 100,00 %
04.05.2019 12:50 11,1 C 16,1 C 16,7 C 71 % 1007,6 hPa 0,0 l/m 2 min 0 min 478 W/m 32,2 km/h (5 Bft) 100,00 %
04.05.2019 12:52 11,2 C 17,2 C 18,3 C 71 % 1007,5 hPa 0,0 l/m 2 min 0 min 812 W/m 12,9 km/h (3 Bft) 100,00 %
04.05.2019 12:54 11,2 C 15,6 C 16,1 C 69 % 1007,6 hPa 0,0 l/m 2 min 0 min 698 W/m 12,9 km/h (3 Bft) 100,00 %
04.05.2019 12:56 11,2 C 14,4 C 15,0 C 69 % 1007,6 hPa 0,0 l/m 0 min 0 min 364 W/m 16,1 km/h (3 Bft) 100,00 %
04.05.2019 12:58 11,2 C 13,9 C 14,4 C 69 % 1007,7 hPa 0,0 l/m 2 min 0 min 437 W/m 22,5 km/h (4 Bft) 100,00 %
04.05.2019 13:00 11,1 C 11,7 C 11,7 C 69 % 1007,8 hPa 0,0 l/m 0 min 0 min 299 W/m 22,5 km/h (4 Bft) 100,00 %
04.05.2019 13:02 10,9 C 10,0 C 10,6 C 69 % 1007,9 hPa 0,0 l/m 0 min 0 min 119 W/m 29,0 km/h (5 Bft) 97,87 %
04.05.2019 13:04 10,4 C 8,9 C 9,4 C 70 % 1008,0 hPa 0,0 l/m 0 min 0 min 164 W/m 41,8 km/h (6 Bft) 97,87 %
04.05.2019 13:06 10,0 C 8,3 C 8,9 C 71 % 1008,0 hPa 0,0 l/m 0 min 0 min 175 W/m 25,7 km/h (4 Bft) 100,00 %
04.05.2019 13:08 9,6 C 7,8 C 8,3 C 72 % 1008,0 hPa 0,0 l/m 0 min 0 min 163 W/m 19,3 km/h (3 Bft) 100,00 %
04.05.2019 13:10 9,2 C 7,8 C 8,3 C 73 % 1007,9 hPa 0,0 l/m 0 min 0 min 161 W/m 22,5 km/h (4 Bft) 100,00 %
04.05.2019 13:12 8,9 C 7,8 C 8,3 C 74 % 1007,9 hPa 0,0 l/m 0 min 0 min 192 W/m 19,3 km/h (3 Bft) 100,00 %
04.05.2019 13:14 8,7 C 7,8 C 7,8 C 75 % 1007,9 hPa 0,0 l/m 0 min 0 min 239 W/m 16,1 km/h (3 Bft) 100,00 %
04.05.2019 13:16 8,6 C 8,3 C 8,3 C 76 % 1007,9 hPa 0,0 l/m 0 min 0 min 273 W/m 19,3 km/h (3 Bft) 97,87 %
04.05.2019 13:18 8,4 C 8,3 C 8,3 C 75 % 1008,0 hPa 0,0 l/m 0 min 0 min 300 W/m 19,3 km/h (3 Bft) 100,00 %
04.05.2019 13:20 8,3 C 8,9 C 8,9 C 75 % 1007,9 hPa 0,0 l/m 0 min 0 min 322 W/m 25,7 km/h (4 Bft) 97,87 %
04.05.2019 13:22 8,3 C 8,9 C 9,4 C 76 % 1007,9 hPa 0,0 l/m 0 min 0 min 346 W/m 16,1 km/h (3 Bft) 97,87 %
04.05.2019 13:24 8,2 C 9,4 C 9,4 C 76 % 1007,9 hPa 0,0 l/m 0 min 0 min 384 W/m 19,3 km/h (3 Bft) 95,74 %
04.05.2019 13:26 8,2 C 10,0 C 10,0 C 75 % 1007,8 hPa 0,0 l/m 2 min 0 min 401 W/m 19,3 km/h (3 Bft) 97,87 %
04.05.2019 13:28 8,3 C 10,6 C 10,0 C 76 % 1007,8 hPa 0,0 l/m 0 min 0 min 393 W/m 9,7 km/h (2 Bft) 97,87 %
04.05.2019 13:30 8,3 C 10,0 C 10,0 C 75 % 1007,8 hPa 0,0 l/m 0 min 0 min 372 W/m 19,3 km/h (3 Bft) 97,83 %
04.05.2019 13:32 8,3 C 10,0 C 10,0 C 75 % 1007,8 hPa 0,0 l/m 0 min 0 min 348 W/m 12,9 km/h (3 Bft) 97,87 %
04.05.2019 13:34 8,3 C 10,0 C 10,0 C 74 % 1007,9 hPa 0,0 l/m 0 min 0 min 356 W/m 12,9 km/h (3 Bft) 97,87 %
04.05.2019 13:36 8,3 C 10,6 C 10,6 C 74 % 1007,9 hPa 0,0 l/m 0 min 0 min 390 W/m 12,9 km/h (3 Bft) 97,87 %
04.05.2019 13:38 8,4 C 11,1 C 10,6 C 75 % 1008,0 hPa 0,0 l/m 2 min 0 min 424 W/m 16,1 km/h (3 Bft) 95,74 %
04.05.2019 13:40 8,4 C 11,7 C 11,7 C 75 % 1008,0 hPa 0,0 l/m 2 min 0 min 473 W/m 9,7 km/h (2 Bft) 97,87 %
04.05.2019 13:42 8,5 C 12,2 C 12,2 C 75 % 1008,0 hPa 0,0 l/m 2 min 0 min 503 W/m 12,9 km/h (3 Bft) 97,83 %
04.05.2019 13:44 8,6 C 13,9 C 13,3 C 74 % 1008,0 hPa 0,0 l/m 2 min 0 min 660 W/m 12,9 km/h (3 Bft) 100,00 %
04.05.2019 13:46 8,8 C 15,0 C 15,0 C 74 % 1008,0 hPa 0,0 l/m 2 min 0 min 773 W/m 12,9 km/h (3 Bft) 93,62 %
04.05.2019 13:48 9,0 C 16,1 C 16,7 C 74 % 1008,0 hPa 0,0 l/m 2 min 0 min 808 W/m 16,1 km/h (3 Bft) 95,74 %
04.05.2019 13:50 9,1 C 17,2 C 18,3 C 74 % 1008,0 hPa 0,0 l/m 2 min 0 min 954 W/m 12,9 km/h (3 Bft) 95,74 %
04.05.2019 13:52 9,4 C 17,8 C 18,9 C 74 % 1008,0 hPa 0,0 l/m 2 min 0 min 932 W/m 19,3 km/h (3 Bft) 93,48 %
04.05.2019 13:54 9,7 C 17,8 C 19,4 C 73 % 1008,1 hPa 0,0 l/m 2 min 0 min 948 W/m 16,1 km/h (3 Bft) 93,62 %
04.05.2019 13:56 9,9 C 17,2 C 19,4 C 71 % 1008,1 hPa 0,0 l/m 2 min 0 min 968 W/m 9,7 km/h (2 Bft) 95,74 %
04.05.2019 13:58 10,1 C 16,7 C 19,4 C 71 % 1008,0 hPa 0,0 l/m 2 min 0 min 975 W/m 12,9 km/h (3 Bft) 93,62 %
04.05.2019 14:00 10,3 C 16,7 C 18,9 C 70 % 1008,0 hPa 0,0 l/m 2 min 0 min 992 W/m 9,7 km/h (2 Bft) 95,74 %
04.05.2019 14:02 10,6 C 17,8 C 19,4 C 69 % 1008,0 hPa 0,0 l/m 2 min 0 min 1032 W/m 19,3 km/h (3 Bft) 95,74 %
04.05.2019 14:04 10,7 C 17,2 C 18,9 C 69 % 1008,1 hPa 0,0 l/m 2 min 0 min 1083 W/m 16,1 km/h (3 Bft) 93,48 %
04.05.2019 14:06 10,9 C 16,1 C 16,7 C 68 % 1008,2 hPa 0,0 l/m 2 min 0 min 729 W/m 19,3 km/h (3 Bft) 97,87 %
04.05.2019 14:08 11,0 C 15,0 C 15,0 C 67 % 1008,1 hPa 0,0 l/m 2 min 0 min 471 W/m 12,9 km/h (3 Bft) 97,87 %
04.05.2019 14:10 11,1 C 13,9 C 13,9 C 68 % 1008,2 hPa 0,0 l/m 2 min 0 min 409 W/m 19,3 km/h (3 Bft) 93,62 %
04.05.2019 14:12 11,0 C 12,2 C 12,8 C 68 % 1008,3 hPa 0,0 l/m 0 min 0 min 274 W/m 19,3 km/h (3 Bft) 95,74 %
04.05.2019 14:14 10,9 C 11,1 C 11,7 C 66 % 1008,4 hPa 0,0 l/m 0 min 0 min 92 W/m 19,3 km/h (3 Bft) 97,87 %
04.05.2019 14:16 10,7 C 9,4 C 10,0 C 66 % 1008,6 hPa 0,0 l/m 0 min 2 min 50 W/m 38,6 km/h (5 Bft) 97,83 %
04.05.2019 14:18 10,3 C 7,8 C 8,3 C 67 % 1008,6 hPa 0,0 l/m 0 min 2 min 31 W/m 41,8 km/h (6 Bft) 97,87 %
04.05.2019 14:20 10,0 C 6,7 C 7,2 C 71 % 1008,7 hPa 0,0 l/m 0 min 2 min 25 W/m 12,9 km/h (3 Bft) 97,87 %
04.05.2019 14:22 9,8 C 6,1 C 6,1 C 72 % 1008,7 hPa 0,2 l/m 0 min 2 min 22 W/m 12,9 km/h (3 Bft) 100,00 %
04.05.2019 14:24 9,5 C 5,0 C 5,6 C 73 % 1008,7 hPa 0,0 l/m 0 min 2 min 19 W/m 19,3 km/h (3 Bft) 100,00 %
04.05.2019 14:26 9,2 C 5,0 C 5,0 C 75 % 1008,8 hPa 0,4 l/m 0 min 2 min 22 W/m 12,9 km/h (3 Bft) 97,87 %
04.05.2019 14:28 8,9 C 4,4 C 5,0 C 76 % 1008,8 hPa 0,0 l/m 0 min 2 min 32 W/m 12,9 km/h (3 Bft) 100,00 %
04.05.2019 14:30 8,7 C 4,4 C 4,4 C 77 % 1008,7 hPa 0,2 l/m 0 min 2 min 52 W/m 12,9 km/h (3 Bft) 97,87 %
04.05.2019 14:32 8,4 C 4,4 C 5,0 C 77 % 1008,6 hPa 0,2 l/m 0 min 2 min 140 W/m 3,2 km/h (1 Bft) 100,00 %
04.05.2019 14:34 8,2 C 5,6 C 5,6 C 79 % 1008,5 hPa 0,0 l/m 0 min 2 min 262 W/m 3,2 km/h (1 Bft) 100,00 %
04.05.2019 14:36 8,1 C 5,0 C 5,0 C 80 % 1008,5 hPa 0,0 l/m 0 min 2 min 244 W/m 3,2 km/h (1 Bft) 100,00 %
04.05.2019 14:38 8,0 C 5,6 C 5,0 C 80 % 1008,4 hPa 0,0 l/m 0 min 0 min 214 W/m 3,2 km/h (1 Bft) 100,00 %
04.05.2019 14:40 7,8 C 6,1 C 5,6 C 81 % 1008,4 hPa 0,0 l/m 0 min 2 min 241 W/m 3,2 km/h (1 Bft) 97,83 %
04.05.2019 14:42 7,7 C 7,8 C 6,7 C 82 % 1008,3 hPa 0,0 l/m 2 min 0 min 399 W/m 3,2 km/h (1 Bft) 100,00 %
04.05.2019 14:44 7,7 C 9,4 C 7,2 C 83 % 1008,3 hPa 0,0 l/m 2 min 0 min 712 W/m 6,4 km/h (2 Bft) 100,00 %
04.05.2019 14:46 7,7 C 9,4 C 6,7 C 84 % 1008,4 hPa 0,0 l/m 2 min 0 min 713 W/m 6,4 km/h (2 Bft) 100,00 %
04.05.2019 14:48 7,7 C 10,0 C 6,7 C 84 % 1008,4 hPa 0,0 l/m 2 min 0 min 690 W/m 3,2 km/h (1 Bft) 100,00 %
04.05.2019 14:50 7,7 C 10,0 C 6,7 C 84 % 1008,4 hPa 0,0 l/m 2 min 0 min 744 W/m 6,4 km/h (2 Bft) 100,00 %
04.05.2019 14:52 7,7 C 11,1 C 6,7 C 85 % 1008,5 hPa 0,0 l/m 2 min 0 min 808 W/m 3,2 km/h (1 Bft) 100,00 %
04.05.2019 14:54 7,8 C 12,2 C 7,2 C 86 % 1008,5 hPa 0,0 l/m 2 min 0 min 840 W/m 6,4 km/h (2 Bft) 100,00 %
04.05.2019 14:56 8,0 C 12,2 C 7,2 C 87 % 1008,5 hPa 0,0 l/m 2 min 0 min 862 W/m 6,4 km/h (2 Bft) 100,00 %
04.05.2019 14:58 8,0 C 12,2 C 7,2 C 87 % 1008,5 hPa 0,0 l/m 2 min 0 min 896 W/m 6,4 km/h (2 Bft) 100,00 %
04.05.2019 15:00 8,1 C 12,2 C 7,8 C 87 % 1008,5 hPa 0,0 l/m 2 min 0 min 969 W/m 9,7 km/h (2 Bft) 97,87 %
04.05.2019 15:02 8,2 C 10,6 C 7,8 C 86 % 1008,6 hPa 0,0 l/m 2 min 0 min 1021 W/m 9,7 km/h (2 Bft) 97,83 %
04.05.2019 15:04 8,2 C 10,6 C 7,8 C 86 % 1008,6 hPa 0,0 l/m 2 min 0 min 963 W/m 6,4 km/h (2 Bft) 100,00 %
04.05.2019 15:06 8,3 C 11,1 C 8,3 C 87 % 1008,7 hPa 0,0 l/m 2 min 0 min 469 W/m 6,4 km/h (2 Bft) 100,00 %
04.05.2019 15:08 8,4 C 10,6 C 8,3 C 87 % 1008,7 hPa 0,0 l/m 2 min 0 min 469 W/m 9,7 km/h (2 Bft) 100,00 %
04.05.2019 15:10 8,5 C 8,9 C 7,8 C 87 % 1008,9 hPa 0,0 l/m 0 min 0 min 134 W/m 16,1 km/h (3 Bft) 100,00 %
04.05.2019 15:12 8,5 C 7,2 C 7,2 C 86 % 1008,8 hPa 0,0 l/m 0 min 2 min 65 W/m 25,7 km/h (4 Bft) 100,00 %
04.05.2019 15:14 8,4 C 6,7 C 6,7 C 85 % 1008,9 hPa 0,0 l/m 0 min 2 min 37 W/m 16,1 km/h (3 Bft) 100,00 %
04.05.2019 15:16 8,3 C 6,1 C 6,1 C 85 % 1009,1 hPa 0,2 l/m 0 min 2 min 38 W/m 25,7 km/h (4 Bft) 100,00 %
04.05.2019 15:18 8,2 C 5,6 C 5,6 C 85 % 1008,9 hPa 0,0 l/m 0 min 2 min 72 W/m 16,1 km/h (3 Bft) 100,00 %
04.05.2019 15:20 8,0 C 5,6 C 5,6 C 84 % 1008,9 hPa 0,2 l/m 0 min 2 min 128 W/m 12,9 km/h (3 Bft) 97,87 %
04.05.2019 15:22 7,9 C 5,6 C 5,6 C 85 % 1008,9 hPa 0,0 l/m 0 min 2 min 194 W/m 6,4 km/h (2 Bft) 97,87 %
04.05.2019 15:24 7,8 C 7,8 C 6,7 C 85 % 1008,8 hPa 0,0 l/m 0 min 2 min 223 W/m 6,4 km/h (2 Bft) 97,87 %
04.05.2019 15:26 7,9 C 9,4 C 7,8 C 86 % 1008,8 hPa 0,0 l/m 2 min 0 min 898 W/m 6,4 km/h (2 Bft) 100,00 %
04.05.2019 15:28 8,1 C 10,0 C 8,3 C 87 % 1008,8 hPa 0,0 l/m 2 min 0 min 730 W/m 6,4 km/h (2 Bft) 97,87 %
04.05.2019 15:30 8,2 C 10,0 C 8,3 C 88 % 1008,7 hPa 0,0 l/m 2 min 0 min 547 W/m 6,4 km/h (2 Bft) 97,87 %
04.05.2019 15:32 8,2 C 9,4 C 7,8 C 88 % 1008,7 hPa 0,0 l/m 2 min 0 min 394 W/m 9,7 km/h (2 Bft) 100,00 %
04.05.2019 15:34 8,2 C 7,8 C 7,2 C 88 % 1008,6 hPa 0,0 l/m 0 min 2 min 201 W/m 9,7 km/h (2 Bft) 100,00 %
04.05.2019 15:36 8,2 C 7,2 C 7,2 C 87 % 1008,6 hPa 0,0 l/m 0 min 0 min 227 W/m 6,4 km/h (2 Bft) 98,31 %
04.05.2019 15:38 8,2 C 7,8 C 7,2 C 86 % 1008,7 hPa 0,0 l/m 0 min 0 min 220 W/m 9,7 km/h (2 Bft) 97,83 %
04.05.2019 15:40 8,2 C 7,2 C 7,2 C 86 % 1008,7 hPa 0,0 l/m 0 min 0 min 201 W/m 9,7 km/h (2 Bft) 97,22 %
04.05.2019 15:42 8,1 C 7,2 C 6,7 C 86 % 1008,6 hPa 0,0 l/m 0 min 0 min 174 W/m 6,4 km/h (2 Bft) 100,00 %
04.05.2019 15:44 8,1 C 7,2 C 6,7 C 86 % 1008,6 hPa 0,0 l/m 0 min 0 min 151 W/m 16,1 km/h (3 Bft) 97,87 %
04.05.2019 15:46 8,0 C 7,2 C 6,7 C 85 % 1008,6 hPa 0,0 l/m 0 min 0 min 144 W/m 9,7 km/h (2 Bft) 100,00 %
04.05.2019 15:48 8,0 C 6,7 C 6,7 C 85 % 1008,6 hPa 0,0 l/m 0 min 0 min 165 W/m 6,4 km/h (2 Bft) 97,87 %
04.05.2019 15:50 7,9 C 7,2 C 6,7 C 84 % 1008,6 hPa 0,0 l/m 0 min 0 min 220 W/m 3,2 km/h (1 Bft) 95,74 %
04.05.2019 15:52 8,0 C 8,3 C 7,2 C 85 % 1008,6 hPa 0,0 l/m 2 min 0 min 366 W/m 9,7 km/h (2 Bft) 97,87 %
04.05.2019 15:54 8,1 C 8,9 C 7,8 C 85 % 1008,6 hPa 0,0 l/m 2 min 0 min 421 W/m 9,7 km/h (2 Bft) 97,83 %
04.05.2019 15:56 8,1 C 9,4 C 7,8 C 86 % 1008,5 hPa 0,0 l/m 2 min 0 min 355 W/m 0,0 km/h (0 Bft) 97,87 %
04.05.2019 15:58 8,3 C 10,6 C 7,8 C 86 % 1008,5 hPa 0,0 l/m 2 min 0 min 348 W/m 6,4 km/h (2 Bft) 97,87 %
04.05.2019 16:00 8,4 C 11,1 C 7,8 C 87 % 1008,5 hPa 0,0 l/m 2 min 0 min 693 W/m 6,4 km/h (2 Bft) 97,87 %
04.05.2019 16:02 8,6 C 11,7 C 7,8 C 87 % 1008,5 hPa 0,0 l/m 2 min 0 min 780 W/m 9,7 km/h (2 Bft) 95,74 %
04.05.2019 16:04 8,7 C 11,1 C 7,8 C 88 % 1008,5 hPa 0,0 l/m 2 min 0 min 778 W/m 9,7 km/h (2 Bft) 97,83 %
04.05.2019 16:06 8,9 C 11,1 C 7,8 C 87 % 1008,6 hPa 0,0 l/m 2 min 0 min 783 W/m 12,9 km/h (3 Bft) 94,92 %
04.05.2019 16:08 9,1 C 11,1 C 7,8 C 86 % 1008,6 hPa 0,0 l/m 2 min 0 min 771 W/m 16,1 km/h (3 Bft) 95,74 %
04.05.2019 16:10 9,1 C 9,4 C 7,8 C 85 % 1008,6 hPa 0,0 l/m 2 min 0 min 754 W/m 19,3 km/h (3 Bft) 94,29 %
04.05.2019 16:12 9,2 C 8,9 C 7,2 C 83 % 1008,6 hPa 0,0 l/m 0 min 0 min 258 W/m 9,7 km/h (2 Bft) 91,49 %
04.05.2019 16:14 9,1 C 7,8 C 7,2 C 82 % 1008,6 hPa 0,0 l/m 0 min 0 min 105 W/m 16,1 km/h (3 Bft) 95,74 %
04.05.2019 16:16 9,1 C 7,8 C 6,7 C 81 % 1008,7 hPa 0,0 l/m 0 min 0 min 71 W/m 6,4 km/h (2 Bft) 93,48 %
04.05.2019 16:18 9,1 C 7,2 C 6,7 C 80 % 1008,8 hPa 0,0 l/m 0 min 0 min 43 W/m 12,9 km/h (3 Bft) 91,49 %
04.05.2019 16:20 8,9 C 6,7 C 6,7 C 80 % 1008,8 hPa 0,0 l/m 0 min 0 min 25 W/m 9,7 km/h (2 Bft) 93,62 %
04.05.2019 16:22 8,9 C 6,7 C 6,1 C 80 % 1008,9 hPa 0,0 l/m 0 min 2 min 17 W/m 12,9 km/h (3 Bft) 91,49 %
04.05.2019 16:24 8,8 C 6,1 C 5,6 C 80 % 1008,9 hPa 0,0 l/m 0 min 2 min 17 W/m 22,5 km/h (4 Bft) 93,62 %
04.05.2019 16:26 8,7 C 5,6 C 5,0 C 80 % 1009,0 hPa 0,2 l/m 0 min 2 min 21 W/m 16,1 km/h (3 Bft) 93,62 %
04.05.2019 16:28 8,4 C 5,6 C 5,0 C 80 % 1009,0 hPa 0,0 l/m 0 min 2 min 30 W/m 19,3 km/h (3 Bft) 93,48 %
04.05.2019 16:30 8,2 C 5,0 C 5,0 C 81 % 1009,0 hPa 0,2 l/m 0 min 2 min 51 W/m 19,3 km/h (3 Bft) 95,74 %
04.05.2019 16:32 8,1 C 5,0 C 5,0 C 82 % 1008,9 hPa 0,2 l/m 0 min 2 min 107 W/m 6,4 km/h (2 Bft) 91,49 %
04.05.2019 16:34 7,9 C 5,0 C 5,0 C 82 % 1009,0 hPa 0,0 l/m 0 min 2 min 109 W/m 9,7 km/h (2 Bft) 93,62 %
04.05.2019 16:36 7,9 C 5,6 C 5,0 C 83 % 1009,2 hPa 0,0 l/m 0 min 0 min 75 W/m 6,4 km/h (2 Bft) 93,10 %
04.05.2019 16:38 7,8 C 5,0 C 5,0 C 84 % 1009,2 hPa 0,0 l/m 0 min 2 min 61 W/m 9,7 km/h (2 Bft) 91,67 %
04.05.2019 16:40 7,7 C 5,0 C 5,0 C 84 % 1009,3 hPa 0,2 l/m 0 min 2 min 61 W/m 9,7 km/h (2 Bft) 93,48 %
04.05.2019 16:42 7,5 C 5,0 C 5,0 C 85 % 1009,4 hPa 0,2 l/m 0 min 2 min 53 W/m 12,9 km/h (3 Bft) 93,62 %
04.05.2019 16:44 7,4 C 5,0 C 5,0 C 85 % 1009,4 hPa 0,2 l/m 0 min 2 min 43 W/m 12,9 km/h (3 Bft) 93,62 %
04.05.2019 16:46 7,3 C 4,4 C 5,0 C 85 % 1009,4 hPa 0,0 l/m 0 min 2 min 30 W/m 12,9 km/h (3 Bft) 95,74 %
04.05.2019 16:48 7,2 C 4,4 C 4,4 C 86 % 1009,2 hPa 0,4 l/m 0 min 2 min 26 W/m 6,4 km/h (2 Bft) 93,62 %
04.05.2019 16:50 7,1 C 3,9 C 4,4 C 86 % 1009,3 hPa 0,2 l/m 0 min 2 min 30 W/m 6,4 km/h (2 Bft) 97,87 %
04.05.2019 16:52 6,9 C 4,4 C 4,4 C 86 % 1009,4 hPa 0,0 l/m 0 min 2 min 34 W/m 6,4 km/h (2 Bft) 97,83 %
04.05.2019 16:54 6,8 C 3,9 C 4,4 C 86 % 1009,6 hPa 0,2 l/m 0 min 2 min 27 W/m 19,3 km/h (3 Bft) 95,74 %
04.05.2019 16:56 6,6 C 3,9 C 3,9 C 86 % 1009,7 hPa 0,4 l/m 0 min 2 min 23 W/m 16,1 km/h (3 Bft) 97,87 %
04.05.2019 16:58 6,4 C 3,9 C 3,9 C 86 % 1009,7 hPa 0,2 l/m 0 min 2 min 25 W/m 9,7 km/h (2 Bft) 97,87 %
04.05.2019 17:00 6,3 C 3,9 C 3,9 C 87 % 1009,6 hPa 0,0 l/m 0 min 2 min 24 W/m 6,4 km/h (2 Bft) 97,87 %
04.05.2019 17:02 6,2 C 3,9 C 3,9 C 87 % 1009,5 hPa 0,0 l/m 0 min 2 min 25 W/m 6,4 km/h (2 Bft) 95,74 %
04.05.2019 17:04 6,1 C 3,9 C 3,9 C 87 % 1009,5 hPa 0,0 l/m 0 min 2 min 23 W/m 16,1 km/h (3 Bft) 97,83 %
04.05.2019 17:06 5,9 C 3,9 C 3,9 C 87 % 1009,4 hPa 0,2 l/m 0 min 2 min 20 W/m 12,9 km/h (3 Bft) 96,61 %
04.05.2019 17:08 5,9 C 3,9 C 3,9 C 88 % 1009,4 hPa 0,0 l/m 0 min 2 min 25 W/m 6,4 km/h (2 Bft) 97,14 %
04.05.2019 17:10 5,8 C 3,9 C 3,9 C 88 % 1009,4 hPa 0,0 l/m 0 min 2 min 31 W/m 3,2 km/h (1 Bft) 97,87 %
04.05.2019 17:12 5,8 C 3,9 C 3,9 C 88 % 1009,3 hPa 0,0 l/m 0 min 2 min 43 W/m 6,4 km/h (2 Bft) 91,49 %
04.05.2019 17:14 5,7 C 3,9 C 3,9 C 88 % 1009,3 hPa 0,0 l/m 0 min 2 min 65 W/m 9,7 km/h (2 Bft) 97,87 %
04.05.2019 17:16 5,7 C 3,9 C 3,9 C 89 % 1009,3 hPa 0,0 l/m 0 min 0 min 77 W/m 16,1 km/h (3 Bft) 100,00 %
04.05.2019 17:18 5,6 C 3,9 C 3,9 C 89 % 1009,3 hPa 0,0 l/m 0 min 0 min 83 W/m 22,5 km/h (4 Bft) 97,87 %
04.05.2019 17:20 5,6 C 4,4 C 4,4 C 89 % 1009,4 hPa 0,0 l/m 0 min 0 min 83 W/m 16,1 km/h (3 Bft) 100,00 %
04.05.2019 17:22 5,5 C 4,4 C 4,4 C 89 % 1009,4 hPa 0,0 l/m 0 min 0 min 81 W/m 12,9 km/h (3 Bft) 100,00 %
04.05.2019 17:24 5,5 C 4,4 C 4,4 C 89 % 1009,4 hPa 0,0 l/m 0 min 0 min 99 W/m 16,1 km/h (3 Bft) 100,00 %
04.05.2019 17:26 5,5 C 4,4 C 4,4 C 90 % 1009,3 hPa 0,0 l/m 0 min 0 min 126 W/m 16,1 km/h (3 Bft) 100,00 %
04.05.2019 17:28 5,5 C 5,0 C 5,0 C 90 % 1009,3 hPa 0,0 l/m 0 min 0 min 147 W/m 12,9 km/h (3 Bft) 100,00 %
04.05.2019 17:30 5,5 C 5,0 C 5,0 C 90 % 1009,3 hPa 0,0 l/m 0 min 0 min 156 W/m 6,4 km/h (2 Bft) 97,87 %
04.05.2019 17:32 5,6 C 5,6 C 5,0 C 90 % 1009,3 hPa 0,0 l/m 0 min 0 min 153 W/m 6,4 km/h (2 Bft) 100,00 %
04.05.2019 17:34 5,6 C 5,0 C 5,0 C 91 % 1009,3 hPa 0,0 l/m 0 min 0 min 152 W/m 19,3 km/h (3 Bft) 100,00 %
04.05.2019 17:36 5,7 C 5,0 C 5,0 C 91 % 1009,4 hPa 0,0 l/m 0 min 0 min 142 W/m 16,1 km/h (3 Bft) 98,31 %
04.05.2019 17:38 5,7 C 5,0 C 5,0 C 91 % 1009,4 hPa 0,0 l/m 0 min 0 min 129 W/m 16,1 km/h (3 Bft) 100,00 %
04.05.2019 17:40 5,7 C 5,0 C 5,0 C 91 % 1009,4 hPa 0,0 l/m 0 min 0 min 121 W/m 16,1 km/h (3 Bft) 97,83 %
04.05.2019 17:42 5,7 C 5,0 C 4,4 C 91 % 1009,3 hPa 0,0 l/m 0 min 0 min 115 W/m 12,9 km/h (3 Bft) 100,00 %
04.05.2019 17:44 5,7 C 5,0 C 4,4 C 91 % 1009,3 hPa 0,0 l/m 0 min 0 min 106 W/m 12,9 km/h (3 Bft) 100,00 %
04.05.2019 17:46 5,7 C 5,0 C 4,4 C 92 % 1009,3 hPa 0,0 l/m 0 min 0 min 98 W/m 9,7 km/h (2 Bft) 100,00 %
04.05.2019 17:48 5,7 C 5,0 C 4,4 C 92 % 1009,4 hPa 0,0 l/m 0 min 0 min 106 W/m 12,9 km/h (3 Bft) 100,00 %
04.05.2019 17:50 5,7 C 5,6 C 5,0 C 92 % 1009,4 hPa 0,0 l/m 2 min 0 min 320 W/m 9,7 km/h (2 Bft) 100,00 %
04.05.2019 17:52 5,8 C 6,1 C 5,6 C 92 % 1009,4 hPa 0,0 l/m 2 min 0 min 450 W/m 19,3 km/h (3 Bft) 100,00 %
04.05.2019 17:54 5,9 C 6,1 C 5,6 C 92 % 1009,4 hPa 0,0 l/m 2 min 0 min 454 W/m 16,1 km/h (3 Bft) 97,87 %
04.05.2019 17:56 6,1 C 6,1 C 5,6 C 93 % 1009,3 hPa 0,0 l/m 2 min 0 min 450 W/m 19,3 km/h (3 Bft) 100,00 %
04.05.2019 17:58 6,2 C 6,7 C 5,6 C 93 % 1009,3 hPa 0,0 l/m 2 min 0 min 444 W/m 9,7 km/h (2 Bft) 100,00 %
04.05.2019 18:00 6,3 C 6,7 C 5,6 C 93 % 1009,4 hPa 0,0 l/m 2 min 0 min 436 W/m 9,7 km/h (2 Bft) 100,00 %
04.05.2019 18:02 6,4 C 7,2 C 6,1 C 93 % 1009,4 hPa 0,0 l/m 2 min 0 min 428 W/m 12,9 km/h (3 Bft) 100,00 %
04.05.2019 18:04 6,6 C 7,2 C 6,1 C 93 % 1009,4 hPa 0,0 l/m 2 min 0 min 421 W/m 12,9 km/h (3 Bft) 100,00 %
04.05.2019 18:07 6,8 C 6,7 C 6,1 C 94 % 1009,5 hPa 0,0 l/m 3 min 0 min 416 W/m 12,9 km/h (3 Bft) 100,00 %
04.05.2019 18:08 6,8 C 7,2 C 6,1 C 94 % 1009,5 hPa 0,0 l/m 1 min 0 min 411 W/m 9,7 km/h (2 Bft) 100,00 %
04.05.2019 18:10 6,9 C 7,2 C 6,7 C 94 % 1009,5 hPa 0,0 l/m 2 min 0 min 409 W/m 19,3 km/h (3 Bft) 100,00 %
04.05.2019 18:12 7,1 C 7,2 C 7,2 C 94 % 1009,4 hPa 0,0 l/m 2 min 0 min 405 W/m 12,9 km/h (3 Bft) 97,87 %
04.05.2019 18:14 7,2 C 7,2 C 6,7 C 94 % 1009,5 hPa 0,0 l/m 2 min 0 min 399 W/m 19,3 km/h (3 Bft) 100,00 %
04.05.2019 18:16 7,3 C 7,2 C 6,7 C 94 % 1009,4 hPa 0,0 l/m 2 min 0 min 396 W/m 12,9 km/h (3 Bft) 100,00 %
04.05.2019 18:18 7,3 C 7,2 C 6,7 C 93 % 1009,5 hPa 0,0 l/m 2 min 0 min 390 W/m 12,9 km/h (3 Bft) 100,00 %
04.05.2019 18:20 7,4 C 7,2 C 7,2 C 93 % 1009,4 hPa 0,0 l/m 2 min 0 min 386 W/m 19,3 km/h (3 Bft) 100,00 %
04.05.2019 18:22 7,6 C 7,2 C 7,2 C 93 % 1009,4 hPa 0,0 l/m 2 min 0 min 381 W/m 16,1 km/h (3 Bft) 97,87 %
04.05.2019 18:24 7,7 C 7,2 C 7,2 C 93 % 1009,5 hPa 0,0 l/m 2 min 0 min 373 W/m 19,3 km/h (3 Bft) 100,00 %
04.05.2019 18:26 7,7 C 7,2 C 6,7 C 93 % 1009,6 hPa 0,0 l/m 2 min 0 min 367 W/m 16,1 km/h (3 Bft) 100,00 %
04.05.2019 18:28 7,8 C 7,2 C 6,1 C 93 % 1009,5 hPa 0,0 l/m 2 min 0 min 361 W/m 16,1 km/h (3 Bft) 97,83 %
04.05.2019 18:30 7,9 C 7,8 C 6,1 C 92 % 1009,5 hPa 0,0 l/m 2 min 0 min 352 W/m 12,9 km/h (3 Bft) 100,00 %
04.05.2019 18:32 7,9 C 7,2 C 6,1 C 92 % 1009,5 hPa 0,0 l/m 2 min 0 min 348 W/m 22,5 km/h (4 Bft) 100,00 %
04.05.2019 18:34 8,0 C 7,2 C 6,1 C 92 % 1009,5 hPa 0,0 l/m 2 min 0 min 344 W/m 22,5 km/h (4 Bft) 95,74 %
04.05.2019 18:36 8,1 C 7,2 C 6,1 C 91 % 1009,5 hPa 0,0 l/m 2 min 0 min 339 W/m 16,1 km/h (3 Bft) 100,00 %
04.05.2019 18:38 8,1 C 7,2 C 6,1 C 91 % 1009,6 hPa 0,0 l/m 2 min 0 min 336 W/m 19,3 km/h (3 Bft) 100,00 %
04.05.2019 18:40 8,1 C 7,2 C 6,1 C 90 % 1009,6 hPa 0,0 l/m 2 min 0 min 329 W/m 12,9 km/h (3 Bft) 100,00 %
04.05.2019 18:42 8,2 C 7,2 C 6,1 C 90 % 1009,6 hPa 0,0 l/m 2 min 0 min 321 W/m 16,1 km/h (3 Bft) 97,87 %
04.05.2019 18:44 8,2 C 7,2 C 6,1 C 89 % 1009,6 hPa 0,0 l/m 2 min 0 min 321 W/m 25,7 km/h (4 Bft) 97,87 %
04.05.2019 18:46 8,2 C 7,2 C 5,6 C 89 % 1009,5 hPa 0,0 l/m 2 min 0 min 316 W/m 19,3 km/h (3 Bft) 100,00 %
04.05.2019 18:48 8,1 C 6,7 C 5,6 C 88 % 1009,5 hPa 0,0 l/m 2 min 0 min 310 W/m 19,3 km/h (3 Bft) 97,87 %
04.05.2019 18:50 8,1 C 6,7 C 5,6 C 87 % 1009,5 hPa 0,0 l/m 2 min 0 min 304 W/m 25,7 km/h (4 Bft) 93,48 %
04.05.2019 18:52 8,1 C 6,7 C 5,6 C 86 % 1009,5 hPa 0,0 l/m 2 min 0 min 297 W/m 19,3 km/h (3 Bft) 97,87 %
04.05.2019 18:54 8,0 C 6,7 C 5,6 C 85 % 1009,6 hPa 0,0 l/m 2 min 0 min 290 W/m 12,9 km/h (3 Bft) 95,74 %
04.05.2019 18:56 8,0 C 6,7 C 5,6 C 85 % 1009,7 hPa 0,0 l/m 2 min 0 min 282 W/m 22,5 km/h (4 Bft) 97,87 %
04.05.2019 18:58 8,0 C 6,7 C 5,6 C 85 % 1009,7 hPa 0,0 l/m 2 min 0 min 276 W/m 22,5 km/h (4 Bft) 95,74 %
04.05.2019 19:00 7,9 C 6,7 C 5,6 C 84 % 1009,7 hPa 0,0 l/m 2 min 0 min 263 W/m 19,3 km/h (3 Bft) 93,62 %
04.05.2019 19:02 7,8 C 6,1 C 5,0 C 83 % 1009,7 hPa 0,0 l/m 2 min 0 min 167 W/m 25,7 km/h (4 Bft) 91,30 %
04.05.2019 19:04 7,8 C 6,1 C 5,0 C 83 % 1009,8 hPa 0,0 l/m 0 min 0 min 65 W/m 19,3 km/h (3 Bft) 93,62 %
04.05.2019 19:06 7,7 C 6,1 C 5,0 C 83 % 1009,9 hPa 0,0 l/m 0 min 0 min 56 W/m 19,3 km/h (3 Bft) 93,62 %
04.05.2019 19:08 7,7 C 6,1 C 5,0 C 82 % 1010,0 hPa 0,0 l/m 0 min 0 min 59 W/m 19,3 km/h (3 Bft) 91,49 %
04.05.2019 19:10 7,7 C 6,1 C 5,0 C 83 % 1010,0 hPa 0,0 l/m 0 min 0 min 64 W/m 19,3 km/h (3 Bft) 93,62 %
04.05.2019 19:12 7,6 C 6,1 C 5,0 C 82 % 1010,1 hPa 0,0 l/m 0 min 0 min 83 W/m 29,0 km/h (5 Bft) 93,62 %
04.05.2019 19:14 7,6 C 6,1 C 5,6 C 83 % 1010,1 hPa 0,0 l/m 0 min 0 min 108 W/m 25,7 km/h (4 Bft) 93,48 %
04.05.2019 19:16 7,6 C 6,1 C 5,6 C 83 % 1010,2 hPa 0,0 l/m 0 min 0 min 109 W/m 22,5 km/h (4 Bft) 93,62 %
04.05.2019 19:18 7,5 C 6,1 C 5,6 C 83 % 1010,4 hPa 0,0 l/m 0 min 0 min 90 W/m 22,5 km/h (4 Bft) 93,62 %
04.05.2019 19:20 7,5 C 6,1 C 5,6 C 83 % 1010,6 hPa 0,0 l/m 0 min 0 min 35 W/m 16,1 km/h (3 Bft) 95,74 %
04.05.2019 19:22 7,4 C 5,6 C 5,0 C 84 % 1010,9 hPa 0,0 l/m 0 min 0 min 18 W/m 25,7 km/h (4 Bft) 91,49 %
04.05.2019 19:24 7,3 C 5,0 C 4,4 C 83 % 1010,9 hPa 0,0 l/m 0 min 2 min 15 W/m 19,3 km/h (3 Bft) 95,74 %
04.05.2019 19:26 7,1 C 4,4 C 4,4 C 83 % 1011,0 hPa 0,0 l/m 0 min 2 min 14 W/m 12,9 km/h (3 Bft) 93,48 %
04.05.2019 19:28 6,9 C 4,4 C 3,9 C 83 % 1010,9 hPa 0,0 l/m 0 min 2 min 18 W/m 22,5 km/h (4 Bft) 97,87 %
04.05.2019 19:30 6,7 C 3,9 C 3,9 C 83 % 1010,9 hPa 0,0 l/m 0 min 2 min 25 W/m 19,3 km/h (3 Bft) 95,74 %
04.05.2019 19:32 6,5 C 3,9 C 3,9 C 83 % 1011,0 hPa 0,0 l/m 0 min 0 min 37 W/m 16,1 km/h (3 Bft) 93,62 %
04.05.2019 19:34 6,4 C 3,9 C 3,9 C 84 % 1011,2 hPa 0,0 l/m 0 min 0 min 46 W/m 9,7 km/h (2 Bft) 93,62 %
04.05.2019 19:36 6,3 C 4,4 C 3,9 C 84 % 1011,3 hPa 0,0 l/m 0 min 0 min 70 W/m 19,3 km/h (3 Bft) 95,65 %
04.05.2019 19:38 6,2 C 4,4 C 3,9 C 84 % 1011,3 hPa 0,0 l/m 0 min 0 min 84 W/m 12,9 km/h (3 Bft) 97,87 %
04.05.2019 19:40 6,1 C 4,4 C 3,9 C 85 % 1011,4 hPa 0,0 l/m 0 min 0 min 64 W/m 9,7 km/h (2 Bft) 95,74 %
04.05.2019 19:42 6,0 C 4,4 C 3,9 C 85 % 1011,4 hPa 0,0 l/m 0 min 0 min 53 W/m 16,1 km/h (3 Bft) 100,00 %
04.05.2019 19:44 5,9 C 4,4 C 3,9 C 85 % 1011,4 hPa 0,0 l/m 0 min 0 min 45 W/m 12,9 km/h (3 Bft) 100,00 %
04.05.2019 19:46 5,9 C 4,4 C 3,9 C 86 % 1011,5 hPa 0,0 l/m 0 min 2 min 34 W/m 9,7 km/h (2 Bft) 100,00 %
04.05.2019 19:48 5,8 C 4,4 C 3,9 C 86 % 1011,5 hPa 0,0 l/m 0 min 2 min 22 W/m 9,7 km/h (2 Bft) 100,00 %
04.05.2019 19:50 5,8 C 3,9 C 3,9 C 86 % 1011,4 hPa 0,0 l/m 0 min 2 min 18 W/m 6,4 km/h (2 Bft) 100,00 %
04.05.2019 19:52 5,7 C 3,9 C 3,9 C 87 % 1011,3 hPa 0,0 l/m 0 min 2 min 16 W/m 6,4 km/h (2 Bft) 100,00 %
04.05.2019 19:54 5,7 C 3,9 C 3,9 C 87 % 1011,2 hPa 0,0 l/m 0 min 2 min 17 W/m 6,4 km/h (2 Bft) 100,00 %
04.05.2019 19:56 5,7 C 3,9 C 3,9 C 87 % 1011,3 hPa 0,0 l/m 0 min 2 min 20 W/m 6,4 km/h (2 Bft) 100,00 %
04.05.2019 19:58 5,6 C 3,9 C 3,9 C 87 % 1011,4 hPa 0,0 l/m 0 min 0 min 26 W/m 6,4 km/h (2 Bft) 100,00 %
04.05.2019 20:00 5,6 C 3,9 C 3,9 C 87 % 1011,4 hPa 0,0 l/m 0 min 0 min 30 W/m 6,4 km/h (2 Bft) 100,00 %
04.05.2019 20:02 5,6 C 3,9 C 3,9 C 87 % 1011,4 hPa 0,2 l/m 0 min 0 min 34 W/m 6,4 km/h (2 Bft) 97,87 %
04.05.2019 20:04 5,5 C 3,9 C 3,9 C 88 % 1011,4 hPa 0,0 l/m 0 min 0 min 38 W/m 3,2 km/h (1 Bft) 97,87 %
04.05.2019 20:06 5,5 C 3,9 C 3,9 C 88 % 1011,5 hPa 0,0 l/m 0 min 0 min 40 W/m 6,4 km/h (2 Bft) 97,87 %
04.05.2019 20:08 5,5 C 3,9 C 3,9 C 88 % 1011,6 hPa 0,0 l/m 0 min 0 min 36 W/m 3,2 km/h (1 Bft) 97,87 %
04.05.2019 20:10 5,4 C 3,9 C 3,9 C 88 % 1011,6 hPa 0,0 l/m 0 min 0 min 32 W/m 6,4 km/h (2 Bft) 100,00 %
04.05.2019 20:12 5,4 C 3,9 C 3,9 C 88 % 1011,6 hPa 0,0 l/m 0 min 0 min 28 W/m 6,4 km/h (2 Bft) 97,83 %
04.05.2019 20:14 5,4 C 3,9 C 3,9 C 88 % 1011,9 hPa 0,0 l/m 0 min 0 min 24 W/m 9,7 km/h (2 Bft) 100,00 %
04.05.2019 20:16 5,4 C 3,9 C 3,3 C 88 % 1011,9 hPa 0,0 l/m 0 min 0 min 21 W/m 12,9 km/h (3 Bft) 97,87 %
04.05.2019 20:18 5,4 C 3,9 C 3,3 C 88 % 1011,9 hPa 0,0 l/m 0 min 0 min 19 W/m 6,4 km/h (2 Bft) 95,74 %
04.05.2019 20:20 5,3 C 3,9 C 3,9 C 88 % 1011,9 hPa 0,0 l/m 0 min 0 min 16 W/m 9,7 km/h (2 Bft) 100,00 %
04.05.2019 20:22 5,3 C 3,9 C 3,3 C 89 % 1011,9 hPa 0,0 l/m 0 min 0 min 15 W/m 6,4 km/h (2 Bft) 97,87 %
04.05.2019 20:24 5,3 C 3,3 C 3,3 C 89 % 1011,9 hPa 0,0 l/m 0 min 0 min 12 W/m 6,4 km/h (2 Bft) 100,00 %
04.05.2019 20:26 5,3 C 3,3 C 3,3 C 89 % 1012,0 hPa 0,0 l/m 0 min 0 min 11 W/m 9,7 km/h (2 Bft) 97,87 %
04.05.2019 20:28 5,2 C 3,3 C 3,3 C 89 % 1012,0 hPa 0,0 l/m 0 min 0 min 11 W/m 6,4 km/h (2 Bft) 100,00 %
04.05.2019 20:30 5,2 C 3,3 C 3,3 C 89 % 1012,0 hPa 0,0 l/m 0 min 0 min 9 W/m 9,7 km/h (2 Bft) 100,00 %
04.05.2019 20:32 5,2 C 3,9 C 3,3 C 89 % 1012,0 hPa 0,0 l/m 0 min 2 min 9 W/m 9,7 km/h (2 Bft) 97,92 %
04.05.2019 20:34 5,2 C 3,3 C 3,3 C 89 % 1012,0 hPa 0,0 l/m 0 min 2 min 9 W/m 12,9 km/h (3 Bft) 100,00 %
04.05.2019 20:36 5,2 C 3,3 C 3,3 C 89 % 1012,1 hPa 0,0 l/m 0 min 2 min 9 W/m 16,1 km/h (3 Bft) 100,00 %
04.05.2019 20:38 5,1 C 3,3 C 3,3 C 89 % 1012,0 hPa 0,0 l/m 0 min 0 min 9 W/m 6,4 km/h (2 Bft) 100,00 %
04.05.2019 20:40 5,1 C 3,3 C 3,3 C 89 % 1012,1 hPa 0,0 l/m 0 min 0 min 8 W/m 9,7 km/h (2 Bft) 100,00 %
04.05.2019 20:42 5,1 C 3,3 C 3,3 C 89 % 1012,1 hPa 0,0 l/m 0 min 0 min 7 W/m 9,7 km/h (2 Bft) 100,00 %
04.05.2019 20:44 5,0 C 3,3 C 3,3 C 89 % 1012,0 hPa 0,0 l/m 0 min 0 min 7 W/m 9,7 km/h (2 Bft) 100,00 %
04.05.2019 20:46 5,0 C 3,3 C 3,3 C 89 % 1012,0 hPa 0,0 l/m 0 min 0 min 6 W/m 6,4 km/h (2 Bft) 100,00 %
04.05.2019 20:48 5,0 C 3,3 C 3,3 C 89 % 1012,1 hPa 0,0 l/m 0 min 0 min 5 W/m 12,9 km/h (3 Bft) 100,00 %
04.05.2019 20:50 4,9 C 3,3 C 3,3 C 89 % 1012,2 hPa 0,0 l/m 0 min 0 min 5 W/m 6,4 km/h (2 Bft) 97,87 %
04.05.2019 20:52 4,9 C 3,3 C 3,3 C 89 % 1012,1 hPa 0,0 l/m 0 min 0 min 5 W/m 6,4 km/h (2 Bft) 100,00 %
04.05.2019 20:54 4,9 C 3,3 C 3,3 C 89 % 1012,2 hPa 0,0 l/m 0 min 0 min 1 W/m 6,4 km/h (2 Bft) 100,00 %
04.05.2019 20:56 4,9 C 3,3 C 2,8 C 89 % 1012,2 hPa 0,0 l/m 0 min 0 min 0 W/m 3,2 km/h (1 Bft) 100,00 %
04.05.2019 20:58 4,8 C 3,3 C 2,8 C 90 % 1012,3 hPa 0,0 l/m 0 min 0 min 0 W/m 0,0 km/h (0 Bft) 97,83 %
04.05.2019 21:00 4,8 C 2,8 C 2,8 C 90 % 1012,3 hPa 0,0 l/m 0 min 0 min 0 W/m 0,0 km/h (0 Bft) 97,87 %
04.05.2019 21:02 4,8 C 2,8 C 2,8 C 90 % 1012,3 hPa 0,0 l/m 0 min 0 min 0 W/m 0,0 km/h (0 Bft) 95,74 %
04.05.2019 21:04 4,8 C 2,8 C 2,8 C 90 % 1012,3 hPa 0,0 l/m 0 min 0 min 0 W/m 0,0 km/h (0 Bft) 100,00 %
04.05.2019 21:06 4,8 C 2,8 C 2,8 C 90 % 1012,4 hPa 0,0 l/m 0 min 0 min 0 W/m 0,0 km/h (0 Bft) 100,00 %
04.05.2019 21:08 4,7 C 2,8 C 2,8 C 90 % 1012,4 hPa 0,0 l/m 0 min 0 min 0 W/m 0,0 km/h (0 Bft) 97,87 %
04.05.2019 21:10 4,7 C 2,8 C 2,8 C 90 % 1012,4 hPa 0,0 l/m 0 min 0 min 0 W/m 0,0 km/h (0 Bft) 97,83 %
04.05.2019 21:12 4,7 C 2,8 C 2,8 C 90 % 1012,4 hPa 0,0 l/m 0 min 0 min 0 W/m 0,0 km/h (0 Bft) 97,87 %
04.05.2019 21:14 4,7 C 2,8 C 2,2 C 90 % 1012,4 hPa 0,0 l/m 0 min 0 min 0 W/m 0,0 km/h (0 Bft) 97,87 %
04.05.2019 21:16 4,7 C 2,8 C 2,2 C 89 % 1012,4 hPa 0,0 l/m 0 min 0 min 0 W/m 0,0 km/h (0 Bft) 95,74 %
04.05.2019 21:18 4,6 C 2,8 C 2,2 C 89 % 1012,6 hPa 0,0 l/m 0 min 0 min 0 W/m 0,0 km/h (0 Bft) 97,87 %
04.05.2019 21:20 4,6 C 2,8 C 2,2 C 89 % 1012,6 hPa 0,0 l/m 0 min 0 min 0 W/m 3,2 km/h (1 Bft) 97,87 %
04.05.2019 21:22 4,6 C 2,8 C 2,2 C 89 % 1012,6 hPa 0,0 l/m 0 min 0 min 0 W/m 6,4 km/h (2 Bft) 97,83 %
04.05.2019 21:24 4,6 C 2,8 C 2,2 C 89 % 1012,7 hPa 0,0 l/m 0 min 0 min 0 W/m 3,2 km/h (1 Bft) 97,87 %
04.05.2019 21:26 4,5 C 2,8 C 2,2 C 89 % 1012,8 hPa 0,0 l/m 0 min 0 min 0 W/m 0,0 km/h (0 Bft) 97,87 %
04.05.2019 21:28 4,5 C 2,8 C 2,2 C 89 % 1012,8 hPa 0,0 l/m 0 min 0 min 0 W/m 3,2 km/h (1 Bft) 97,87 %
04.05.2019 21:30 4,4 C 2,8 C 2,2 C 89 % 1012,9 hPa 0,0 l/m 0 min 0 min 0 W/m 3,2 km/h (1 Bft) 97,87 %
04.05.2019 21:32 4,4 C 2,8 C 2,2 C 90 % 1012,9 hPa 0,0 l/m 0 min 0 min 0 W/m 3,2 km/h (1 Bft) 97,87 %
04.05.2019 21:34 4,4 C 2,8 C 2,2 C 90 % 1013,0 hPa 0,0 l/m 0 min 0 min 0 W/m 3,2 km/h (1 Bft) 97,83 %
04.05.2019 21:36 4,3 C 2,8 C 2,2 C 89 % 1013,0 hPa 0,0 l/m 0 min 0 min 0 W/m 3,2 km/h (1 Bft) 97,87 %
04.05.2019 21:38 4,3 C 2,8 C 2,2 C 89 % 1013,1 hPa 0,0 l/m 0 min 0 min 0 W/m 0,0 km/h (0 Bft) 95,74 %
04.05.2019 21:40 4,3 C 2,8 C 2,2 C 90 % 1013,1 hPa 0,0 l/m 0 min 0 min 0 W/m 0,0 km/h (0 Bft) 97,87 %
04.05.2019 21:42 4,3 C 2,8 C 2,2 C 90 % 1013,1 hPa 0,0 l/m 0 min 0 min 0 W/m 3,2 km/h (1 Bft) 97,87 %
04.05.2019 21:44 4,2 C 2,8 C 2,2 C 90 % 1013,1 hPa 0,0 l/m 0 min 0 min 0 W/m 0,0 km/h (0 Bft) 95,65 %
04.05.2019 21:46 4,2 C 2,8 C 2,2 C 90 % 1013,1 hPa 0,0 l/m 0 min 0 min 0 W/m 3,2 km/h (1 Bft) 97,87 %
04.05.2019 21:48 4,2 C 2,8 C 2,2 C 90 % 1013,2 hPa 0,0 l/m 0 min 0 min 0 W/m 3,2 km/h (1 Bft) 95,74 %
04.05.2019 21:50 4,2 C 2,8 C 2,2 C 90 % 1013,2 hPa 0,0 l/m 0 min 0 min 0 W/m 3,2 km/h (1 Bft) 97,87 %
04.05.2019 21:52 4,1 C 2,8 C 2,2 C 90 % 1013,3 hPa 0,0 l/m 0 min 0 min 0 W/m 3,2 km/h (1 Bft) 97,87 %
04.05.2019 21:54 4,1 C 2,8 C 2,2 C 90 % 1013,3 hPa 0,0 l/m 0 min 0 min 0 W/m 3,2 km/h (1 Bft) 97,87 %
04.05.2019 21:56 4,1 C 2,8 C 2,2 C 90 % 1013,4 hPa 0,0 l/m 0 min 0 min 0 W/m 3,2 km/h (1 Bft) 97,83 %
04.05.2019 21:58 4,1 C 2,8 C 2,2 C 90 % 1013,5 hPa 0,0 l/m 0 min 0 min 0 W/m 6,4 km/h (2 Bft) 97,87 %
04.05.2019 22:00 4,0 C 2,2 C 2,2 C 91 % 1013,5 hPa 0,0 l/m 0 min 0 min 0 W/m 3,2 km/h (1 Bft) 95,74 %
04.05.2019 22:02 4,0 C 2,2 C 2,2 C 91 % 1013,5 hPa 0,0 l/m 0 min 0 min 0 W/m 3,2 km/h (1 Bft) 95,74 %
04.05.2019 22:04 4,0 C 2,8 C 2,2 C 91 % 1013,5 hPa 0,0 l/m 0 min 0 min 0 W/m 6,4 km/h (2 Bft) 95,74 %
04.05.2019 22:06 3,9 C 2,2 C 2,2 C 91 % 1013,5 hPa 0,0 l/m 0 min 0 min 0 W/m 3,2 km/h (1 Bft) 97,87 %
04.05.2019 22:08 3,9 C 2,2 C 2,2 C 91 % 1013,6 hPa 0,0 l/m 0 min 0 min 0 W/m 3,2 km/h (1 Bft) 97,83 %
04.05.2019 22:10 3,9 C 2,2 C 2,2 C 91 % 1013,6 hPa 0,0 l/m 0 min 0 min 0 W/m 3,2 km/h (1 Bft) 97,87 %
04.05.2019 22:12 3,9 C 2,2 C 2,2 C 91 % 1013,6 hPa 0,0 l/m 0 min 0 min 0 W/m 3,2 km/h (1 Bft) 97,87 %
04.05.2019 22:14 3,9 C 2,2 C 2,2 C 91 % 1013,5 hPa 0,0 l/m 0 min 0 min 0 W/m 0,0 km/h (0 Bft) 97,87 %
04.05.2019 22:16 3,9 C 2,2 C 2,2 C 91 % 1013,6 hPa 0,0 l/m 0 min 0 min 0 W/m 0,0 km/h (0 Bft) 97,87 %
04.05.2019 22:18 3,8 C 2,2 C 2,2 C 91 % 1013,6 hPa 0,0 l/m 0 min 0 min 0 W/m 3,2 km/h (1 Bft) 95,74 %
04.05.2019 22:20 3,8 C 2,2 C 2,2 C 91 % 1013,6 hPa 0,0 l/m 0 min 0 min 0 W/m 0,0 km/h (0 Bft) 100,00 %
04.05.2019 22:22 3,8 C 2,2 C 2,2 C 91 % 1013,7 hPa 0,0 l/m 0 min 0 min 0 W/m 3,2 km/h (1 Bft) 93,62 %
04.05.2019 22:24 3,8 C 2,2 C 2,2 C 91 % 1013,7 hPa 0,0 l/m 0 min 0 min 0 W/m 3,2 km/h (1 Bft) 97,87 %
04.05.2019 22:26 3,7 C 2,2 C 2,2 C 91 % 1013,7 hPa 0,0 l/m 0 min 0 min 0 W/m 0,0 km/h (0 Bft) 95,74 %
04.05.2019 22:28 3,7 C 2,2 C 2,2 C 91 % 1013,7 hPa 0,0 l/m 0 min 0 min 0 W/m 3,2 km/h (1 Bft) 95,74 %
04.05.2019 22:30 3,7 C 2,2 C 1,7 C 91 % 1013,7 hPa 0,0 l/m 0 min 0 min 0 W/m 0,0 km/h (0 Bft) 97,87 %
04.05.2019 22:32 3,7 C 2,2 C 1,7 C 91 % 1013,7 hPa 0,0 l/m 0 min 0 min 0 W/m 0,0 km/h (0 Bft) 97,83 %
04.05.2019 22:34 3,6 C 2,2 C 1,7 C 91 % 1013,7 hPa 0,0 l/m 0 min 0 min 0 W/m 0,0 km/h (0 Bft) 97,87 %
04.05.2019 22:36 3,6 C 2,2 C 1,7 C 91 % 1013,7 hPa 0,0 l/m 0 min 0 min 0 W/m 6,4 km/h (2 Bft) 97,87 %
04.05.2019 22:38 3,6 C 2,2 C 2,2 C 92 % 1013,8 hPa 0,0 l/m 0 min 0 min 0 W/m 0,0 km/h (0 Bft) 97,92 %
04.05.2019 22:40 3,6 C 2,2 C 2,2 C 92 % 1013,7 hPa 0,0 l/m 0 min 0 min 0 W/m 3,2 km/h (1 Bft) 97,87 %
04.05.2019 22:42 3,6 C 2,2 C 2,2 C 92 % 1013,8 hPa 0,0 l/m 0 min 0 min 0 W/m 3,2 km/h (1 Bft) 95,65 %
04.05.2019 22:44 3,5 C 2,2 C 2,2 C 92 % 1013,8 hPa 0,0 l/m 0 min 0 min 0 W/m 3,2 km/h (1 Bft) 95,74 %
04.05.2019 22:46 3,5 C 2,2 C 2,2 C 92 % 1013,9 hPa 0,0 l/m 0 min 0 min 0 W/m 3,2 km/h (1 Bft) 97,87 %
04.05.2019 22:48 3,5 C 2,2 C 2,2 C 92 % 1013,9 hPa 0,0 l/m 0 min 0 min 0 W/m 6,4 km/h (2 Bft) 95,74 %
04.05.2019 22:50 3,5 C 2,2 C 2,2 C 92 % 1013,9 hPa 0,0 l/m 0 min 0 min 0 W/m 3,2 km/h (1 Bft) 95,74 %
04.05.2019 22:52 3,4 C 2,2 C 2,2 C 92 % 1013,9 hPa 0,0 l/m 0 min 0 min 0 W/m 0,0 km/h (0 Bft) 95,74 %
04.05.2019 22:54 3,4 C 2,2 C 2,2 C 92 % 1014,0 hPa 0,0 l/m 0 min 0 min 0 W/m 0,0 km/h (0 Bft) 95,65 %
04.05.2019 22:56 3,4 C 2,2 C 2,2 C 92 % 1014,0 hPa 0,0 l/m 0 min 0 min 0 W/m 3,2 km/h (1 Bft) 97,87 %
04.05.2019 22:58 3,4 C 2,2 C 2,2 C 92 % 1014,0 hPa 0,0 l/m 0 min 0 min 0 W/m 3,2 km/h (1 Bft) 95,74 %
04.05.2019 23:00 3,4 C 2,2 C 2,2 C 92 % 1014,0 hPa 0,0 l/m 0 min 0 min 0 W/m 3,2 km/h (1 Bft) 93,62 %
04.05.2019 23:02 3,4 C 2,2 C 1,7 C 92 % 1014,0 hPa 0,0 l/m 0 min 0 min 0 W/m 3,2 km/h (1 Bft) 91,49 %
04.05.2019 23:04 3,4 C 2,2 C 1,7 C 92 % 1014,0 hPa 0,0 l/m 0 min 0 min 0 W/m 0,0 km/h (0 Bft) 93,62 %
04.05.2019 23:06 3,3 C 2,2 C 1,7 C 93 % 1014,1 hPa 0,0 l/m 0 min 0 min 0 W/m 0,0 km/h (0 Bft) 93,48 %
04.05.2019 23:08 3,3 C 1,7 C 1,7 C 93 % 1014,1 hPa 0,0 l/m 0 min 0 min 0 W/m 0,0 km/h (0 Bft) 95,74 %
04.05.2019 23:10 3,3 C 1,7 C 1,7 C 93 % 1014,1 hPa 0,0 l/m 0 min 0 min 0 W/m 0,0 km/h (0 Bft) 93,62 %
04.05.2019 23:12 3,3 C 1,7 C 1,7 C 92 % 1014,2 hPa 0,0 l/m 0 min 0 min 0 W/m 3,2 km/h (1 Bft) 95,74 %
04.05.2019 23:14 3,2 C 1,7 C 1,7 C 93 % 1014,2 hPa 0,0 l/m 0 min 0 min 0 W/m 3,2 km/h (1 Bft) 95,74 %
04.05.2019 23:16 3,2 C 1,7 C 1,7 C 93 % 1014,2 hPa 0,0 l/m 0 min 0 min 0 W/m 3,2 km/h (1 Bft) 95,74 %
04.05.2019 23:18 3,2 C 1,7 C 1,7 C 93 % 1014,1 hPa 0,0 l/m 0 min 0 min 0 W/m 3,2 km/h (1 Bft) 95,65 %
04.05.2019 23:20 3,2 C 1,7 C 1,7 C 93 % 1014,2 hPa 0,0 l/m 0 min 0 min 0 W/m 3,2 km/h (1 Bft) 95,74 %
04.05.2019 23:22 3,2 C 1,7 C 1,7 C 93 % 1014,2 hPa 0,0 l/m 0 min 0 min 0 W/m 0,0 km/h (0 Bft) 95,74 %
04.05.2019 23:24 3,2 C 1,7 C 1,7 C 93 % 1014,2 hPa 0,0 l/m 0 min 0 min 0 W/m 0,0 km/h (0 Bft) 91,49 %
04.05.2019 23:26 3,1 C 1,7 C 1,7 C 93 % 1014,3 hPa 0,0 l/m 0 min 0 min 0 W/m 3,2 km/h (1 Bft) 95,74 %
04.05.2019 23:28 3,1 C 1,7 C 1,7 C 93 % 1014,2 hPa 0,0 l/m 0 min 0 min 0 W/m 3,2 km/h (1 Bft) 93,62 %
04.05.2019 23:30 3,1 C 1,7 C 1,7 C 93 % 1014,2 hPa 0,0 l/m 0 min 0 min 0 W/m 0,0 km/h (0 Bft) 93,48 %
04.05.2019 23:32 3,1 C 1,7 C 1,7 C 93 % 1014,3 hPa 0,0 l/m 0 min 0 min 0 W/m 0,0 km/h (0 Bft) 97,83 %
04.05.2019 23:36 3,0 C 1,7 C 1,1 C 93 % 1014,3 hPa 0,0 l/m 0 min 0 min 0 W/m 0,0 km/h (0 Bft) 96,81 %
04.05.2019 23:38 3,0 C 1,7 C 1,1 C 93 % 1014,3 hPa 0,0 l/m 0 min 0 min 0 W/m 0,0 km/h (0 Bft) 97,92 %
04.05.2019 23:40 3,0 C 1,7 C 1,1 C 93 % 1014,3 hPa 0,0 l/m 0 min 0 min 0 W/m 0,0 km/h (0 Bft) 97,87 %
04.05.2019 23:42 2,9 C 1,7 C 1,1 C 93 % 1014,4 hPa 0,0 l/m 0 min 0 min 0 W/m 0,0 km/h (0 Bft) 97,83 %
04.05.2019 23:44 2,9 C 1,7 C 1,1 C 93 % 1014,5 hPa 0,0 l/m 0 min 0 min 0 W/m 3,2 km/h (1 Bft) 95,74 %
04.05.2019 23:46 2,9 C 1,7 C 1,1 C 93 % 1014,5 hPa 0,0 l/m 0 min 0 min 0 W/m 0,0 km/h (0 Bft) 97,87 %
04.05.2019 23:48 2,9 C 1,7 C 1,1 C 93 % 1014,5 hPa 0,0 l/m 0 min 0 min 0 W/m 0,0 km/h (0 Bft) 97,87 %
04.05.2019 23:50 2,8 C 1,7 C 1,1 C 93 % 1014,6 hPa 0,0 l/m 0 min 0 min 0 W/m 0,0 km/h (0 Bft) 97,87 %
04.05.2019 23:52 2,8 C 1,7 C 1,1 C 93 % 1014,6 hPa 0,0 l/m 0 min 0 min 0 W/m 0,0 km/h (0 Bft) 93,48 %
04.05.2019 23:54 2,8 C 1,7 C 1,1 C 93 % 1014,6 hPa 0,0 l/m 0 min 0 min 0 W/m 3,2 km/h (1 Bft) 97,87 %
04.05.2019 23:56 2,8 C 1,7 C 1,1 C 93 % 1014,6 hPa 0,0 l/m 0 min 0 min 0 W/m 6,4 km/h (2 Bft) 97,87 %
04.05.2019 23:58 2,8 C 1,7 C 1,7 C 93 % 1014,6 hPa 0,0 l/m 0 min 0 min 0 W/m 3,2 km/h (1 Bft) 97,87 %
_ Min-Zeit 23:50 23:08 23:36 14:14 05:22 - - - - 01:28 03:50
Minimum _ 2,8 C 1,7 C 1,1 C 66 % 1007,2 hPa - - - - 0,0 km/h (0 Bft) 89,13 %
_ Max-Zeit 12:52 11:32 11:34 08:22 23:50 14:26 18:07 05:10 12:44 13:04 00:04
Maximum _ 11,2 C 21,1 C 21,1 C 97 % 1014,6 hPa 0,4 l/m 3 min 5 min 1109 W/m 41,8 km/h
N (6 Bft)
100,00 %
Durchschnitt _ 6,1 C 6,1 C 5,7 C 89 % 1009,0 hPa #12,0 l/m #5:18 h #8:59 h 287 W/m 9,9 km/h (2 Bft) 97,61 %
© 2019 W. Hausmann